M I D A S
Marine Information and Data Acquisition System
Tripno 1928 of the Zeeleeuw from 2010-07-29 06:54:23 to 2010-07-30 10:55:56
Back to CruiseResearch ActivitiesStationsMapUnderway DataData graphs

EquipmentUnitsComment
TimeDGPSUTC
LatitudeDGPSDM.mWGS84
LongitudeDGPSDM.mWGS84
TemperatureSBE03/SBE38deg celciusITS90
ConductivitySBE21S/mITS90
SalinitySBE21 Practical Salinity Units
ChlorophylAChelsea fluorimeterg/lCalibrated in Aceton
Missing or incorrect values are displayed as -999
Sea surface data collected by the RV Zeeleeuw from 2010-07-29 02:04:57 to 2010-07-30 12:59:40
                                                                                    Next 1000 lines
Time Latitude Longitude Temperature Conductivity Salinity ChlorophylA
2010-07-29 02:05:07 51°13.662 2°55.961 22.9395 0.921316 5.151825 -1.000568
2010-07-29 02:05:12 51°13.662 2°55.961 22.9385 0.921316 5.151899 -1.000568
2010-07-29 02:05:17 51°13.662 2°55.961 22.9381 0.921211 5.15127 -0.965744
2010-07-29 02:05:22 51°13.662 2°55.961 22.9368 0.921211 5.151344 -0.965744
2010-07-29 02:05:27 51°13.662 2°55.961 22.9372 0.921211 5.151344 -0.965744
2010-07-29 02:05:32 51°13.662 2°55.961 22.9369 0.921316 5.152047 -0.965744
2010-07-29 02:05:37 51°13.662 2°55.961 22.9377 0.921211 5.151491 -1.000568
2010-07-29 02:05:42 51°13.662 2°55.961 22.937 0.921211 5.151491 -1.000568
2010-07-29 02:05:47 51°13.662 2°55.961 22.9373 0.921211 5.151565 -1.000568
2010-07-29 02:05:52 51°13.662 2°55.961 22.9377 0.921211 5.151565 -1.000568
2010-07-29 02:05:57 51°13.662 2°55.961 22.9373 0.921211 5.151565 -1.000568
2010-07-29 02:06:02 51°13.662 2°55.961 22.9379 0.921211 5.151713 -0.965744
2010-07-29 02:06:07 51°13.662 2°55.961 22.9383 0.921211 5.151713 -0.965744
2010-07-29 02:06:12 51°13.662 2°55.961 22.9372 0.921211 5.151713 -1.000568
2010-07-29 02:06:17 51°13.662 2°55.961 22.9369 0.921211 5.151786 -1.000568
2010-07-29 02:06:22 51°13.662 2°55.961 22.9359 0.921211 5.15186 -0.965744
2010-07-29 02:06:27 51°13.662 2°55.961 22.9357 0.921211 5.151934 -1.000568
2010-07-29 02:06:32 51°13.662 2°55.961 22.9353 0.921211 5.151934 -1.000568
2010-07-29 02:06:37 51°13.662 2°55.961 22.9354 0.921211 5.151934 -0.93092
2010-07-29 02:06:42 51°13.662 2°55.961 22.9358 0.921211 5.152081 -1.000568
2010-07-29 02:06:47 51°13.662 2°55.961 22.9359 0.921211 5.152081 -1.000568
2010-07-29 02:06:52 51°13.662 2°55.96 22.9353 0.921211 5.152155 -1.000568
2010-07-29 02:06:57 51°13.662 2°55.96 22.9358 0.921106 5.1516 -1.000568
2010-07-29 02:07:02 51°13.662 2°55.961 22.9362 0.921106 5.1516 -1.000568
2010-07-29 02:07:07 51°13.662 2°55.96 22.9362 0.921106 5.151674 -1.000568
2010-07-29 02:07:12 51°13.662 2°55.961 22.9357 0.921106 5.151674 -1.000568
2010-07-29 02:07:17 51°13.662 2°55.961 22.9347 0.921106 5.151747 -1.000568
2010-07-29 02:07:22 51°13.662 2°55.961 22.9343 0.921106 5.151747 -1.000568
2010-07-29 02:07:27 51°13.662 2°55.961 22.9343 0.921106 5.151747 -1.000568
2010-07-29 02:07:32 51°13.662 2°55.961 22.9342 0.921106 5.151747 -0.965744
2010-07-29 02:07:37 51°13.662 2°55.961 22.9346 0.921106 5.151821 -1.000568
2010-07-29 02:07:42 51°13.662 2°55.961 22.935 0.921106 5.151895 -1.000568
2010-07-29 02:07:47 51°13.662 2°55.961 22.9342 0.921106 5.151895 -1.035392
2010-07-29 02:07:52 51°13.662 2°55.961 22.9337 0.921106 5.151895 -1.000568
2010-07-29 02:07:57 51°13.662 2°55.961 22.9336 0.921106 5.151895 -1.000568
2010-07-29 02:08:02 51°13.662 2°55.961 22.933 0.921106 5.151969 -0.965744
2010-07-29 02:08:07 51°13.662 2°55.961 22.9315 0.921106 5.151969 -0.965744
2010-07-29 02:08:12 51°13.662 2°55.961 22.9314 0.921106 5.152043 -0.965744
2010-07-29 02:08:17 51°13.662 2°55.961 22.9309 0.921106 5.152043 -1.000568
2010-07-29 02:08:22 51°13.662 2°55.961 22.9323 0.921106 5.152116 -1.000568
2010-07-29 02:08:27 51°13.662 2°55.961 22.9323 0.921106 5.152116 -1.000568
2010-07-29 02:08:32 51°13.662 2°55.961 22.9308 0.921106 5.152043 -0.965744
2010-07-29 02:08:37 51°13.662 2°55.961 22.9301 0.921106 5.15219 -1.000568
2010-07-29 02:08:42 51°13.662 2°55.961 22.9303 0.921002 5.151561 -0.965744
2010-07-29 02:08:47 51°13.662 2°55.961 22.9312 0.921002 5.151561 -1.000568
2010-07-29 02:08:52 51°13.662 2°55.961 22.9316 0.921106 5.152264 -1.000568
2010-07-29 02:08:57 51°13.662 2°55.961 22.9322 0.921106 5.152264 -1.000568
2010-07-29 02:09:02 51°13.662 2°55.961 22.933 0.921002 5.151635 -1.000568
2010-07-29 02:09:07 51°13.662 2°55.961 22.9333 0.921106 5.152264 -1.000568
2010-07-29 02:09:12 51°13.662 2°55.961 22.9328 0.921002 5.151635 -1.000568
2010-07-29 02:09:17 51°13.662 2°55.961 22.9317 0.921002 5.151709 -1.000568
2010-07-29 02:09:22 51°13.662 2°55.961 22.9308 0.921002 5.151782 -1.000568
2010-07-29 02:09:27 51°13.662 2°55.961 22.9307 0.921002 5.151782 -1.000568
2010-07-29 02:09:32 51°13.662 2°55.961 22.9298 0.921002 5.151856 -1.000568
2010-07-29 02:09:37 51°13.662 2°55.961 22.9308 0.921002 5.151782 -0.965744
2010-07-29 02:09:42 51°13.662 2°55.961 22.9317 0.921002 5.151856 -1.000568
2010-07-29 02:09:47 51°13.663 2°55.961 22.9322 0.921002 5.151856 -1.000568
2010-07-29 02:09:52 51°13.663 2°55.961 22.9323 0.921002 5.15193 -1.000568
2010-07-29 02:09:57 51°13.662 2°55.961 22.9325 0.921002 5.15193 -1.000568
2010-07-29 02:10:02 51°13.662 2°55.961 22.9315 0.921002 5.15193 -1.000568
2010-07-29 02:10:07 51°13.663 2°55.961 22.9317 0.921002 5.152004 -0.965744
2010-07-29 02:10:12 51°13.663 2°55.961 22.9311 0.921002 5.152004 -1.000568
2010-07-29 02:10:17 51°13.662 2°55.961 22.9302 0.921002 5.152004 -0.965744
2010-07-29 02:10:22 51°13.662 2°55.961 22.9296 0.921002 5.152078 -1.000568
2010-07-29 02:10:27 51°13.662 2°55.961 22.9282 0.921002 5.152078 -1.000568
2010-07-29 02:10:32 51°13.662 2°55.961 22.9289 0.920897 5.151522 -0.965744
2010-07-29 02:10:37 51°13.662 2°55.961 22.9283 0.920897 5.151522 -1.000568
2010-07-29 02:10:42 51°13.662 2°55.961 22.9288 0.921002 5.152151 -0.965744
2010-07-29 02:10:47 51°13.662 2°55.961 22.9286 0.920897 5.15167 -1.000568
2010-07-29 02:10:52 51°13.662 2°55.961 22.9289 0.921002 5.152225 -1.000568
2010-07-29 02:10:57 51°13.662 2°55.961 22.9295 0.921002 5.152225 -1.000568
2010-07-29 02:11:02 51°13.662 2°55.961 22.9297 0.920897 5.15167 -1.000568
2010-07-29 02:11:07 51°13.662 2°55.961 22.929 0.920897 5.15167 -1.000568
2010-07-29 02:11:12 51°13.662 2°55.961 22.929 0.920897 5.15167 -1.000568
2010-07-29 02:11:17 51°13.662 2°55.961 22.9284 0.920897 5.151817 -1.000568
2010-07-29 02:11:22 51°13.662 2°55.961 22.9276 0.920897 5.151817 -0.965744
2010-07-29 02:11:27 51°13.662 2°55.961 22.9275 0.920897 5.151817 -1.035392
2010-07-29 02:11:32 51°13.662 2°55.961 22.9279 0.920897 5.151817 -1.035392
2010-07-29 02:11:37 51°13.662 2°55.961 22.9279 0.920897 5.151891 -0.965744
2010-07-29 02:11:42 51°13.662 2°55.961 22.9276 0.920897 5.151891 -1.000568
2010-07-29 02:11:47 51°13.662 2°55.961 22.9279 0.920897 5.151891 -1.000568
2010-07-29 02:11:52 51°13.662 2°55.961 22.9272 0.920897 5.151891 -1.000568
2010-07-29 02:11:57 51°13.662 2°55.961 22.9268 0.920897 5.151891 -1.000568
2010-07-29 02:12:02 51°13.662 2°55.961 22.928 0.920897 5.152039 -1.000568
2010-07-29 02:12:07 51°13.662 2°55.96 22.9276 0.920897 5.152039 -1.000568
2010-07-29 02:12:12 51°13.662 2°55.96 22.9273 0.920897 5.152039 -1.000568
2010-07-29 02:12:17 51°13.662 2°55.96 22.926 0.920792 5.151483 -1.000568
2010-07-29 02:12:22 51°13.662 2°55.96 22.9259 0.920897 5.152113 -1.000568
2010-07-29 02:12:27 51°13.662 2°55.96 22.9265 0.920897 5.152113 -1.000568
2010-07-29 02:12:32 51°13.662 2°55.96 22.9275 0.920897 5.152113 -1.000568
2010-07-29 02:12:37 51°13.662 2°55.96 22.9289 0.920792 5.151631 -0.965744
2010-07-29 02:12:42 51°13.662 2°55.96 22.9285 0.920792 5.151557 -1.000568
2010-07-29 02:12:47 51°13.662 2°55.96 22.9274 0.920792 5.151631 -1.035392
2010-07-29 02:12:52 51°13.662 2°55.96 22.9258 0.920792 5.151631 -1.035392
2010-07-29 02:12:57 51°13.662 2°55.96 22.9248 0.920792 5.151705 -1.000568
2010-07-29 02:13:02 51°13.662 2°55.96 22.9247 0.920792 5.151705 -1.000568
2010-07-29 02:13:07 51°13.662 2°55.96 22.9254 0.920792 5.151778 -0.965744
2010-07-29 02:13:12 51°13.662 2°55.96 22.9268 0.920792 5.151705 -0.965744
2010-07-29 02:13:17 51°13.662 2°55.96 22.9279 0.920792 5.151778 -1.000568
2010-07-29 02:13:22 51°13.662 2°55.96 22.928 0.920792 5.151778 -1.000568
2010-07-29 02:13:27 51°13.662 2°55.96 22.9276 0.920792 5.151778 -1.000568
2010-07-29 02:13:32 51°13.662 2°55.96 22.9265 0.920792 5.151852 -1.000568
2010-07-29 02:13:37 51°13.662 2°55.96 22.9267 0.920792 5.151852 -1.000568
2010-07-29 02:13:42 51°13.662 2°55.96 22.9259 0.920792 5.151852 -1.000568
2010-07-29 02:13:47 51°13.662 2°55.96 22.9246 0.920792 5.151926 -1.000568
2010-07-29 02:13:52 51°13.662 2°55.961 22.9241 0.920792 5.152 -1.000568
2010-07-29 02:13:57 51°13.662 2°55.961 22.9233 0.920792 5.152 -1.000568
2010-07-29 02:14:02 51°13.662 2°55.961 22.9239 0.920792 5.151926 -1.000568
2010-07-29 02:14:07 51°13.662 2°55.961 22.9249 0.920792 5.152 -1.000568
2010-07-29 02:14:12 51°13.662 2°55.961 22.9256 0.920688 5.151444 -1.000568
2010-07-29 02:14:17 51°13.662 2°55.961 22.9261 0.920688 5.151444 -1.000568
2010-07-29 02:14:22 51°13.662 2°55.961 22.9256 0.920688 5.151518 -0.965744
2010-07-29 02:14:27 51°13.662 2°55.961 22.9264 0.920688 5.151518 -1.035392
2010-07-29 02:14:32 51°13.662 2°55.961 22.9266 0.920688 5.151518 -1.035392
2010-07-29 02:14:37 51°13.662 2°55.961 22.9264 0.920688 5.151518 -1.000568
2010-07-29 02:14:42 51°13.662 2°55.961 22.9266 0.920688 5.151666 -0.965744
2010-07-29 02:14:47 51°13.662 2°55.961 22.9264 0.920688 5.15174 -1.000568
2010-07-29 02:14:52 51°13.662 2°55.961 22.9264 0.920688 5.15174 -0.965744
2010-07-29 02:14:57 51°13.663 2°55.961 22.9256 0.920688 5.15174 -0.965744
2010-07-29 02:15:02 51°13.663 2°55.961 22.9247 0.920688 5.15174 -1.000568
2010-07-29 02:15:07 51°13.663 2°55.961 22.9155 0.920688 5.15174 -1.000568
2010-07-29 02:15:12 51°13.662 2°55.961 22.9181 0.920688 5.151813 -1.035392
2010-07-29 02:15:17 51°13.662 2°55.961 22.9184 0.920688 5.151887 -1.035392
2010-07-29 02:15:22 51°13.663 2°55.961 22.9131 0.920688 5.151961 -1.000568
2010-07-29 02:15:27 51°13.662 2°55.961 22.9106 0.920688 5.151961 -1.000568
2010-07-29 02:15:32 51°13.662 2°55.961 22.9107 0.920688 5.151887 -1.035392
2010-07-29 02:15:37 51°13.662 2°55.961 22.9149 0.920688 5.151887 -0.965744
2010-07-29 02:15:42 51°13.662 2°55.961 22.916 0.920688 5.151961 -1.000568
2010-07-29 02:15:47 51°13.663 2°55.961 22.9168 0.920688 5.152035 -1.000568
2010-07-29 02:15:52 51°13.663 2°55.961 22.9177 0.920688 5.152035 -1.000568
2010-07-29 02:15:57 51°13.663 2°55.961 22.9193 0.920688 5.152035 -1.000568
2010-07-29 02:16:02 51°13.663 2°55.961 22.9201 0.920583 5.151479 -1.000568
2010-07-29 02:16:07 51°13.663 2°55.961 22.9221 0.920583 5.151553 -0.965744
2010-07-29 02:16:12 51°13.662 2°55.961 22.9235 0.920583 5.151553 -1.035392
2010-07-29 02:16:17 51°13.663 2°55.961 22.9238 0.920583 5.151627 -1.000568
2010-07-29 02:16:22 51°13.663 2°55.961 22.9236 0.920583 5.151627 -0.965744
2010-07-29 02:16:27 51°13.662 2°55.961 22.9228 0.920583 5.151701 -1.000568
2010-07-29 02:16:32 51°13.662 2°55.961 22.9232 0.920583 5.151701 -1.000568
2010-07-29 02:16:37 51°13.662 2°55.961 22.9219 0.920583 5.151775 -1.000568
2010-07-29 02:16:42 51°13.662 2°55.961 22.9218 0.920583 5.151775 -1.000568
2010-07-29 02:16:47 51°13.662 2°55.961 22.9221 0.920583 5.151922 -1.000568
2010-07-29 02:16:52 51°13.662 2°55.961 22.9198 0.920583 5.151922 -0.965744
2010-07-29 02:16:57 51°13.662 2°55.961 22.9185 0.920583 5.151922 -0.965744
2010-07-29 02:17:02 51°13.662 2°55.961 22.9171 0.920583 5.151922 -0.965744
2010-07-29 02:17:07 51°13.662 2°55.961 22.9167 0.920583 5.15207 -0.965744
2010-07-29 02:17:12 51°13.662 2°55.961 22.9162 0.920583 5.151996 -1.035392
2010-07-29 02:17:17 51°13.662 2°55.961 22.9161 0.920583 5.15207 -1.000568
2010-07-29 02:17:22 51°13.662 2°55.961 22.9165 0.920583 5.152144 -0.965744
2010-07-29 02:17:27 51°13.662 2°55.961 22.9162 0.920583 5.152144 -0.965744
2010-07-29 02:17:32 51°13.662 2°55.961 22.9179 0.920583 5.152144 -1.000568
2010-07-29 02:17:37 51°13.662 2°55.961 22.9181 0.920478 5.151514 -0.965744
2010-07-29 02:17:42 51°13.662 2°55.961 22.9173 0.920478 5.151588 -1.000568
2010-07-29 02:17:47 51°13.662 2°55.961 22.9166 0.920583 5.152292 -1.000568
2010-07-29 02:17:52 51°13.662 2°55.961 22.9175 0.920478 5.151514 -1.000568
2010-07-29 02:17:57 51°13.662 2°55.961 22.9171 0.920478 5.151514 -1.000568
2010-07-29 02:18:02 51°13.662 2°55.961 22.9174 0.920478 5.151662 -1.000568
2010-07-29 02:18:07 51°13.662 2°55.961 22.9184 0.920478 5.151736 -0.965744
2010-07-29 02:18:12 51°13.662 2°55.961 22.9196 0.920478 5.151736 -0.965744
2010-07-29 02:18:17 51°13.663 2°55.961 22.9193 0.920478 5.15181 -1.000568
2010-07-29 02:18:22 51°13.662 2°55.961 22.9187 0.920478 5.15181 -0.965744
2010-07-29 02:18:27 51°13.662 2°55.961 22.9181 0.920478 5.151736 -0.965744
2010-07-29 02:18:32 51°13.662 2°55.961 22.9176 0.920478 5.151736 -0.965744
2010-07-29 02:18:37 51°13.663 2°55.961 22.9141 0.920478 5.151736 -1.000568
2010-07-29 02:18:42 51°13.662 2°55.961 22.9113 0.920478 5.15181 -1.035392
2010-07-29 02:18:47 51°13.662 2°55.961 22.9082 0.920478 5.151957 -1.035392
2010-07-29 02:18:52 51°13.662 2°55.961 22.9069 0.920478 5.151884 -1.000568
2010-07-29 02:18:57 51°13.662 2°55.961 22.9063 0.920478 5.151884 -1.000568
2010-07-29 02:19:02 51°13.662 2°55.961 22.9081 0.920478 5.152031 -1.000568
2010-07-29 02:19:07 51°13.662 2°55.961 22.9087 0.920478 5.151957 -1.035392
2010-07-29 02:19:12 51°13.662 2°55.961 22.9089 0.920478 5.152031 -0.965744
2010-07-29 02:19:17 51°13.662 2°55.961 22.9089 0.920478 5.152105 -1.000568
2010-07-29 02:19:22 51°13.662 2°55.961 22.9093 0.920478 5.152031 -1.000568
2010-07-29 02:19:27 51°13.662 2°55.961 22.9092 0.920374 5.151476 -1.000568
2010-07-29 02:19:32 51°13.662 2°55.961 22.91 0.920374 5.151476 -1.000568
2010-07-29 02:19:37 51°13.662 2°55.961 22.9113 0.920374 5.151549 -1.000568
2010-07-29 02:19:42 51°13.662 2°55.961 22.9135 0.920478 5.152179 -1.035392
2010-07-29 02:19:47 51°13.662 2°55.961 22.9148 0.920374 5.151549 -0.965744
2010-07-29 02:19:52 51°13.662 2°55.961 22.9149 0.920374 5.151697 -1.000568
2010-07-29 02:19:57 51°13.662 2°55.961 22.9158 0.920374 5.151623 -1.000568
2010-07-29 02:20:02 51°13.662 2°55.961 22.9168 0.920374 5.151623 -1.000568
2010-07-29 02:20:07 51°13.662 2°55.961 22.9163 0.920374 5.151771 -1.000568
2010-07-29 02:20:12 51°13.662 2°55.961 22.9171 0.920374 5.151771 -1.000568
2010-07-29 02:20:17 51°13.662 2°55.961 22.9169 0.920374 5.151771 -0.965744
2010-07-29 02:20:22 51°13.662 2°55.961 22.9176 0.920374 5.151845 -0.965744
2010-07-29 02:20:27 51°13.662 2°55.961 22.9172 0.920374 5.151845 -0.965744
2010-07-29 02:20:32 51°13.662 2°55.961 22.9167 0.920269 5.151289 -1.000568
2010-07-29 02:20:37 51°13.662 2°55.961 22.9169 0.920374 5.151919 -1.000568
2010-07-29 02:20:42 51°13.662 2°55.961 22.9172 0.920374 5.151993 -1.000568
2010-07-29 02:20:47 51°13.662 2°55.961 22.916 0.920269 5.151363 -1.000568
2010-07-29 02:20:52 51°13.662 2°55.961 22.9156 0.920269 5.151437 -1.000568
2010-07-29 02:20:57 51°13.662 2°55.961 22.9149 0.920269 5.151437 -1.000568
2010-07-29 02:21:02 51°13.662 2°55.961 22.9147 0.920269 5.151437 -1.000568
2010-07-29 02:21:07 51°13.662 2°55.961 22.9149 0.920269 5.151437 -1.000568
2010-07-29 02:21:12 51°13.662 2°55.961 22.914 0.920269 5.151511 -0.965744
2010-07-29 02:21:17 51°13.662 2°55.961 22.9128 0.920269 5.151585 -1.000568
2010-07-29 02:21:22 51°13.662 2°55.961 22.9129 0.920269 5.151658 -1.000568
2010-07-29 02:21:27 51°13.662 2°55.961 22.9125 0.920269 5.151658 -1.000568
2010-07-29 02:21:32 51°13.662 2°55.962 22.9124 0.920269 5.151658 -1.000568
2010-07-29 02:21:37 51°13.662 2°55.961 22.9117 0.920269 5.151732 -1.000568
2010-07-29 02:21:42 51°13.662 2°55.961 22.9122 0.920269 5.151732 -1.000568
2010-07-29 02:21:47 51°13.662 2°55.961 22.9126 0.920269 5.151806 -1.000568
2010-07-29 02:21:52 51°13.662 2°55.961 22.9128 0.920269 5.151806 -1.000568
2010-07-29 02:21:57 51°13.662 2°55.961 22.9121 0.920269 5.151806 -1.000568
2010-07-29 02:22:02 51°13.662 2°55.961 22.9133 0.920269 5.15188 -0.965744
2010-07-29 02:22:07 51°13.662 2°55.961 22.9138 0.920269 5.151954 -1.035392
2010-07-29 02:22:12 51°13.662 2°55.961 22.9135 0.920269 5.151954 -0.965744
2010-07-29 02:22:17 51°13.662 2°55.961 22.9132 0.920269 5.151954 -0.965744
2010-07-29 02:22:22 51°13.662 2°55.962 22.9132 0.920269 5.151954 -1.000568
2010-07-29 02:22:27 51°13.662 2°55.962 22.9124 0.920269 5.151954 -1.000568
2010-07-29 02:22:32 51°13.662 2°55.962 22.9134 0.920164 5.151398 -1.000568
2010-07-29 02:22:37 51°13.662 2°55.962 22.9133 0.920164 5.151472 -1.000568
2010-07-29 02:22:42 51°13.662 2°55.962 22.9127 0.920269 5.152102 -1.000568
2010-07-29 02:22:47 51°13.662 2°55.962 22.912 0.920269 5.152102 -0.965744
2010-07-29 02:22:52 51°13.662 2°55.962 22.9126 0.920164 5.151546 -1.000568
2010-07-29 02:22:57 51°13.662 2°55.962 22.9124 0.920164 5.15162 -1.000568
2010-07-29 02:23:02 51°13.662 2°55.961 22.912 0.920164 5.15162 -1.000568
2010-07-29 02:23:07 51°13.662 2°55.961 22.9122 0.920164 5.15162 -1.035392
2010-07-29 02:23:12 51°13.662 2°55.961 22.9117 0.920164 5.151694 -1.035392
2010-07-29 02:23:17 51°13.662 2°55.961 22.9109 0.920164 5.151767 -0.965744
2010-07-29 02:23:22 51°13.662 2°55.961 22.9109 0.920164 5.151694 -1.000568
2010-07-29 02:23:27 51°13.662 2°55.961 22.9099 0.920164 5.151694 -1.000568
2010-07-29 02:23:32 51°13.663 2°55.961 22.91 0.920164 5.151767 -1.000568
2010-07-29 02:23:37 51°13.663 2°55.961 22.91 0.920164 5.151767 -1.000568
2010-07-29 02:23:42 51°13.663 2°55.961 22.91 0.920164 5.151841 -1.000568
2010-07-29 02:23:47 51°13.663 2°55.961 22.9102 0.920164 5.151915 -1.000568
2010-07-29 02:23:52 51°13.663 2°55.96 22.9102 0.92006 5.151285 -0.965744
2010-07-29 02:23:57 51°13.663 2°55.96 22.9101 0.92006 5.151285 -0.965744
2010-07-29 02:24:02 51°13.663 2°55.96 22.9104 0.920164 5.151841 -0.965744
2010-07-29 02:24:07 51°13.663 2°55.96 22.9104 0.92006 5.151285 -1.000568
2010-07-29 02:24:12 51°13.663 2°55.96 22.9099 0.920164 5.151989 -1.000568
2010-07-29 02:24:17 51°13.663 2°55.96 22.9092 0.92006 5.151433 -1.000568
2010-07-29 02:24:22 51°13.663 2°55.96 22.9076 0.92006 5.151359 -0.965744
2010-07-29 02:24:27 51°13.663 2°55.96 22.9052 0.92006 5.151433 -0.965744
2010-07-29 02:24:32 51°13.663 2°55.96 22.9043 0.92006 5.151433 -0.965744
2010-07-29 02:24:37 51°13.662 2°55.96 22.9048 0.92006 5.151507 -1.000568
2010-07-29 02:24:42 51°13.662 2°55.96 22.9053 0.92006 5.151581 -1.035392
2010-07-29 02:24:47 51°13.662 2°55.96 22.9052 0.92006 5.151581 -0.965744
2010-07-29 02:24:52 51°13.662 2°55.96 22.9071 0.92006 5.151581 -1.000568
2010-07-29 02:24:57 51°13.662 2°55.96 22.9081 0.92006 5.151581 -1.000568
2010-07-29 02:25:02 51°13.663 2°55.96 22.9076 0.92006 5.151655 -0.965744
2010-07-29 02:25:07 51°13.663 2°55.96 22.9067 0.92006 5.151729 -0.965744
2010-07-29 02:25:12 51°13.662 2°55.96 22.9043 0.92006 5.151729 -1.000568
2010-07-29 02:25:17 51°13.662 2°55.96 22.9034 0.92006 5.151655 -0.965744
2010-07-29 02:25:22 51°13.662 2°55.96 22.9023 0.92006 5.151729 -1.000568
2010-07-29 02:25:27 51°13.662 2°55.96 22.903 0.92006 5.151729 -1.000568
2010-07-29 02:25:32 51°13.662 2°55.96 22.9026 0.92006 5.151803 -1.000568
2010-07-29 02:25:37 51°13.662 2°55.96 22.9037 0.92006 5.151877 -1.000568
2010-07-29 02:25:42 51°13.662 2°55.96 22.9052 0.92006 5.151877 -0.965744
2010-07-29 02:25:47 51°13.662 2°55.96 22.9068 0.919955 5.151321 -1.035392
2010-07-29 02:25:52 51°13.662 2°55.96 22.9071 0.919955 5.151321 -0.965744
2010-07-29 02:25:57 51°13.662 2°55.96 22.9072 0.919955 5.151321 -0.965744
2010-07-29 02:26:02 51°13.662 2°55.96 22.9076 0.92006 5.151951 -1.000568
2010-07-29 02:26:07 51°13.662 2°55.96 22.9066 0.919955 5.151395 -1.000568
2010-07-29 02:26:12 51°13.662 2°55.96 22.906 0.919955 5.151468 -1.000568
2010-07-29 02:26:17 51°13.662 2°55.96 22.9046 0.919955 5.151468 -1.035392
2010-07-29 02:26:22 51°13.662 2°55.96 22.9042 0.919955 5.151468 -0.965744
2010-07-29 02:26:27 51°13.662 2°55.96 22.9038 0.919955 5.151468 -0.965744
2010-07-29 02:26:32 51°13.662 2°55.96 22.9032 0.919955 5.151542 -1.000568
2010-07-29 02:26:37 51°13.662 2°55.96 22.9045 0.919955 5.151542 -1.000568
2010-07-29 02:26:42 51°13.662 2°55.96 22.9051 0.919955 5.151616 -1.000568
2010-07-29 02:26:47 51°13.662 2°55.96 22.9046 0.919955 5.15169 -1.000568
2010-07-29 02:26:52 51°13.662 2°55.959 22.9061 0.919955 5.15169 -1.035392
2010-07-29 02:26:57 51°13.662 2°55.959 22.9066 0.919955 5.15169 -1.035392
2010-07-29 02:27:02 51°13.662 2°55.959 22.9069 0.919955 5.15169 -1.000568
2010-07-29 02:27:07 51°13.662 2°55.959 22.9065 0.919955 5.151764 -0.965744
2010-07-29 02:27:12 51°13.662 2°55.959 22.9043 0.919955 5.151838 -1.000568
2010-07-29 02:27:17 51°13.662 2°55.96 22.9039 0.919955 5.151838 -1.000568
2010-07-29 02:27:22 51°13.662 2°55.96 22.9017 0.919955 5.151838 -0.965744
2010-07-29 02:27:27 51°13.662 2°55.96 22.9001 0.919955 5.151912 -0.965744
2010-07-29 02:27:32 51°13.662 2°55.96 22.8995 0.919955 5.151912 -0.965744
2010-07-29 02:27:37 51°13.662 2°55.96 22.8998 0.91985 5.151356 -1.035392
2010-07-29 02:27:42 51°13.662 2°55.96 22.8996 0.919955 5.151986 -1.000568
2010-07-29 02:27:47 51°13.662 2°55.96 22.9007 0.91985 5.151356 -1.000568
2010-07-29 02:27:52 51°13.662 2°55.96 22.9006 0.91985 5.151356 -0.965744
2010-07-29 02:27:57 51°13.662 2°55.96 22.9014 0.91985 5.151356 -0.965744
2010-07-29 02:28:02 51°13.662 2°55.96 22.9019 0.91985 5.151504 -1.000568
2010-07-29 02:28:07 51°13.662 2°55.96 22.9036 0.91985 5.15143 -1.000568
2010-07-29 02:28:12 51°13.662 2°55.96 22.9035 0.91985 5.151504 -1.000568
2010-07-29 02:28:17 51°13.662 2°55.96 22.9041 0.91985 5.151578 -1.000568
2010-07-29 02:28:22 51°13.662 2°55.96 22.9052 0.91985 5.151504 -1.000568
2010-07-29 02:28:27 51°13.662 2°55.96 22.9046 0.91985 5.151504 -1.000568
2010-07-29 02:28:32 51°13.662 2°55.96 22.904 0.91985 5.151652 -1.000568
2010-07-29 02:28:37 51°13.662 2°55.96 22.9038 0.91985 5.151652 -1.000568
2010-07-29 02:28:42 51°13.662 2°55.96 22.9024 0.91985 5.151725 -0.965744
2010-07-29 02:28:47 51°13.662 2°55.96 22.9017 0.91985 5.151725 -1.000568
2010-07-29 02:28:52 51°13.662 2°55.96 22.9017 0.91985 5.151799 -1.000568
2010-07-29 02:28:57 51°13.662 2°55.96 22.9015 0.919746 5.151243 -1.000568
2010-07-29 02:29:02 51°13.662 2°55.96 22.9017 0.919746 5.151243 -1.000568
2010-07-29 02:29:07 51°13.662 2°55.96 22.9012 0.91985 5.151799 -1.000568
2010-07-29 02:29:12 51°13.662 2°55.96 22.9015 0.91985 5.151873 -1.000568
2010-07-29 02:29:17 51°13.662 2°55.96 22.9014 0.919746 5.151243 -1.035392
2010-07-29 02:29:22 51°13.662 2°55.96 22.9002 0.919746 5.151391 -0.965744
2010-07-29 02:29:27 51°13.662 2°55.96 22.8998 0.919746 5.151391 -0.965744
2010-07-29 02:29:32 51°13.662 2°55.96 22.8985 0.919746 5.151391 -1.000568
2010-07-29 02:29:37 51°13.662 2°55.96 22.8973 0.919746 5.151391 -1.035392
2010-07-29 02:29:42 51°13.662 2°55.96 22.8979 0.919746 5.151465 -1.000568
2010-07-29 02:29:47 51°13.662 2°55.96 22.8995 0.919746 5.151539 -1.000568
2010-07-29 02:29:52 51°13.662 2°55.96 22.899 0.919746 5.151539 -1.000568
2010-07-29 02:29:57 51°13.662 2°55.96 22.9 0.919746 5.151539 -1.000568
2010-07-29 02:30:02 51°13.662 2°55.96 22.8993 0.919746 5.151613 -1.000568
2010-07-29 02:30:07 51°13.662 2°55.96 22.8997 0.919746 5.151613 -1.000568
2010-07-29 02:30:12 51°13.662 2°55.96 22.9001 0.919746 5.151687 -1.000568
2010-07-29 02:30:17 51°13.662 2°55.96 22.8995 0.919746 5.151835 -0.965744
2010-07-29 02:30:22 51°13.662 2°55.96 22.9005 0.919746 5.151835 -1.000568
2010-07-29 02:30:27 51°13.662 2°55.96 22.8994 0.919746 5.151909 -1.000568
2010-07-29 02:30:32 51°13.662 2°55.96 22.8985 0.919746 5.151909 -1.000568
2010-07-29 02:30:37 51°13.662 2°55.96 22.8977 0.919641 5.151279 -0.965744
2010-07-29 02:30:42 51°13.662 2°55.96 22.8964 0.919746 5.151983 -1.000568
2010-07-29 02:30:47 51°13.662 2°55.96 22.894 0.919641 5.151426 -0.965744
2010-07-29 02:30:52 51°13.662 2°55.96 22.8944 0.919641 5.1515 -1.000568
2010-07-29 02:30:57 51°13.662 2°55.96 22.8936 0.919746 5.15213 -1.000568
2010-07-29 02:31:02 51°13.662 2°55.96 22.8927 0.919746 5.15213 -1.000568
2010-07-29 02:31:07 51°13.662 2°55.96 22.8915 0.919641 5.1515 -1.000568
2010-07-29 02:31:12 51°13.662 2°55.96 22.894 0.919641 5.1515 -1.000568
2010-07-29 02:31:17 51°13.662 2°55.96 22.8961 0.919641 5.151574 -1.035392
2010-07-29 02:31:22 51°13.662 2°55.96 22.8976 0.919641 5.151722 -1.000568
2010-07-29 02:31:27 51°13.662 2°55.96 22.8985 0.919641 5.151722 -1.000568
2010-07-29 02:31:32 51°13.662 2°55.96 22.8996 0.919641 5.151648 -1.035392
2010-07-29 02:31:37 51°13.662 2°55.96 22.8999 0.919641 5.151722 -1.000568
2010-07-29 02:31:42 51°13.662 2°55.96 22.8999 0.919641 5.151722 -0.965744
2010-07-29 02:31:47 51°13.662 2°55.96 22.8986 0.919641 5.151796 -0.965744
2010-07-29 02:31:52 51°13.662 2°55.96 22.899 0.919641 5.151796 -1.000568
2010-07-29 02:31:57 51°13.662 2°55.96 22.8986 0.919641 5.151796 -1.000568
2010-07-29 02:32:02 51°13.662 2°55.96 22.8982 0.919641 5.15187 -0.965744
2010-07-29 02:32:07 51°13.662 2°55.96 22.897 0.919641 5.15187 -0.965744
2010-07-29 02:32:12 51°13.662 2°55.961 22.8956 0.919536 5.15124 -1.000568
2010-07-29 02:32:17 51°13.662 2°55.96 22.8958 0.919641 5.151944 -1.035392
2010-07-29 02:32:22 51°13.662 2°55.96 22.8957 0.919641 5.152018 -1.000568
2010-07-29 02:32:27 51°13.661 2°55.96 22.8939 0.919536 5.151462 -1.000568
2010-07-29 02:32:32 51°13.661 2°55.96 22.895 0.919536 5.151462 -1.000568
2010-07-29 02:32:37 51°13.661 2°55.96 22.8945 0.919641 5.152092 -1.000568
2010-07-29 02:32:42 51°13.661 2°55.961 22.8954 0.919536 5.151536 -1.000568
2010-07-29 02:32:47 51°13.661 2°55.961 22.8967 0.919536 5.151462 -0.965744
2010-07-29 02:32:52 51°13.661 2°55.961 22.8961 0.919536 5.151536 -1.000568
2010-07-29 02:32:57 51°13.661 2°55.961 22.8965 0.919536 5.151536 -1.000568
2010-07-29 02:33:02 51°13.661 2°55.961 22.8965 0.919536 5.151684 -1.035392
2010-07-29 02:33:07 51°13.661 2°55.961 22.8962 0.919536 5.15161 -0.965744
2010-07-29 02:33:12 51°13.661 2°55.961 22.8959 0.919536 5.15161 -0.965744
2010-07-29 02:33:17 51°13.661 2°55.961 22.8957 0.919536 5.151684 -1.035392
2010-07-29 02:33:22 51°13.661 2°55.961 22.8961 0.919536 5.151758 -1.000568
2010-07-29 02:33:27 51°13.661 2°55.961 22.8958 0.919536 5.151758 -1.000568
2010-07-29 02:33:32 51°13.661 2°55.961 22.8955 0.919536 5.151758 -1.000568
2010-07-29 02:33:37 51°13.661 2°55.961 22.8958 0.919536 5.151758 -1.000568
2010-07-29 02:33:42 51°13.662 2°55.961 22.8963 0.919536 5.151832 -1.000568
2010-07-29 02:33:47 51°13.663 2°55.956 22.8971 0.919536 5.151832 -1.000568
2010-07-29 02:33:52 51°13.664 2°55.955 22.8962 0.919537 5.151905 -1.000568
2010-07-29 02:33:57 51°13.664 2°55.955 22.8964 0.919537 5.151905 -1.000568
2010-07-29 02:34:02 51°13.664 2°55.956 22.896 0.919537 5.151905 -1.000568
2010-07-29 02:34:07 51°13.663 2°55.957 22.8952 0.919432 5.151349 -1.000568
2010-07-29 02:34:12 51°13.663 2°55.959 22.8962 0.919537 5.151979 -0.965744
2010-07-29 02:34:17 51°13.662 2°55.96 22.895 0.919432 5.151423 -1.000568
2010-07-29 02:34:22 51°13.662 2°55.96 22.8947 0.919432 5.151497 -1.000568
2010-07-29 02:34:27 51°13.662 2°55.96 22.8942 0.919432 5.151497 -1.000568
2010-07-29 02:34:32 51°13.662 2°55.959 22.8944 0.919432 5.151497 -1.000568
2010-07-29 02:34:37 51°13.662 2°55.959 22.8941 0.919432 5.151571 -0.965744
2010-07-29 02:34:42 51°13.663 2°55.959 22.8942 0.919432 5.151571 -0.965744
2010-07-29 02:34:47 51°13.663 2°55.959 22.8946 0.919432 5.151645 -1.000568
2010-07-29 02:34:52 51°13.663 2°55.958 22.8948 0.919432 5.151645 -1.000568
2010-07-29 02:34:57 51°13.662 2°55.959 22.8943 0.919432 5.151645 -1.000568
2010-07-29 02:35:02 51°13.662 2°55.959 22.8947 0.919327 5.151089 -1.000568
2010-07-29 02:35:07 51°13.662 2°55.959 22.8937 0.919432 5.151719 -0.965744
2010-07-29 02:35:12 51°13.662 2°55.959 22.8929 0.919432 5.151793 -0.965744
2010-07-29 02:35:17 51°13.662 2°55.959 22.8923 0.919432 5.151793 -1.035392
2010-07-29 02:35:22 51°13.662 2°55.958 22.8923 0.919432 5.151941 -1.000568
2010-07-29 02:35:27 51°13.662 2°55.959 22.8928 0.919327 5.151237 -1.000568
2010-07-29 02:35:32 51°13.662 2°55.959 22.8929 0.919327 5.151237 -1.000568
2010-07-29 02:35:37 51°13.662 2°55.959 22.8931 0.919432 5.151941 -1.000568
2010-07-29 02:35:42 51°13.662 2°55.959 22.8935 0.919327 5.151311 -1.035392
2010-07-29 02:35:47 51°13.662 2°55.96 22.8938 0.919327 5.151385 -1.000568
2010-07-29 02:35:52 51°13.662 2°55.96 22.8932 0.919432 5.152089 -1.000568
2010-07-29 02:35:57 51°13.662 2°55.96 22.8929 0.919327 5.151459 -1.000568
2010-07-29 02:36:02 51°13.662 2°55.96 22.8924 0.919327 5.151459 -1.000568
2010-07-29 02:36:07 51°13.662 2°55.96 22.8915 0.919327 5.151533 -1.000568
2010-07-29 02:36:12 51°13.662 2°55.96 22.892 0.919327 5.151533 -1.000568
2010-07-29 02:36:17 51°13.662 2°55.96 22.8915 0.919327 5.151533 -0.965744
2010-07-29 02:36:22 51°13.662 2°55.96 22.8907 0.919327 5.151607 -0.965744
2010-07-29 02:36:27 51°13.662 2°55.961 22.8905 0.919327 5.151607 -0.965744
2010-07-29 02:36:32 51°13.662 2°55.961 22.8905 0.919327 5.151607 -1.000568
2010-07-29 02:36:37 51°13.662 2°55.961 22.8903 0.919327 5.15168 -1.000568
2010-07-29 02:36:42 51°13.662 2°55.961 22.8893 0.919327 5.151754 -1.000568
2010-07-29 02:36:47 51°13.662 2°55.961 22.89 0.919327 5.151754 -1.000568
2010-07-29 02:36:52 51°13.662 2°55.961 22.8907 0.919327 5.151828 -1.000568
2010-07-29 02:36:57 51°13.662 2°55.961 22.8914 0.919327 5.151828 -1.000568
2010-07-29 02:37:02 51°13.662 2°55.961 22.8917 0.919327 5.151754 -0.965744
2010-07-29 02:37:07 51°13.662 2°55.961 22.892 0.919327 5.151902 -1.000568
2010-07-29 02:37:12 51°13.662 2°55.961 22.891 0.919327 5.151902 -1.000568
2010-07-29 02:37:17 51°13.662 2°55.961 22.8903 0.919223 5.151346 -1.000568
2010-07-29 02:37:22 51°13.662 2°55.961 22.8891 0.919223 5.151272 -0.965744
2010-07-29 02:37:27 51°13.662 2°55.961 22.8866 0.919223 5.151346 -1.000568
2010-07-29 02:37:32 51°13.662 2°55.961 22.886 0.919223 5.151346 -1.000568
2010-07-29 02:37:37 51°13.662 2°55.96 22.887 0.919223 5.15142 -1.000568
2010-07-29 02:37:42 51°13.662 2°55.96 22.8871 0.919223 5.15142 -0.965744
2010-07-29 02:37:47 51°13.662 2°55.961 22.8868 0.919223 5.151494 -1.000568
2010-07-29 02:37:52 51°13.662 2°55.961 22.8873 0.919223 5.151494 -1.035392
2010-07-29 02:37:57 51°13.661 2°55.961 22.888 0.919223 5.151494 -1.035392
2010-07-29 02:38:02 51°13.661 2°55.961 22.8881 0.919223 5.151568 -0.965744
2010-07-29 02:38:07 51°13.661 2°55.961 22.8885 0.919223 5.151642 -0.965744
2010-07-29 02:38:12 51°13.661 2°55.961 22.8878 0.919223 5.151568 -1.000568
2010-07-29 02:38:17 51°13.661 2°55.961 22.8875 0.919223 5.151642 -1.000568
2010-07-29 02:38:22 51°13.661 2°55.961 22.8885 0.919223 5.151642 -1.000568
2010-07-29 02:38:27 51°13.661 2°55.961 22.8875 0.919223 5.15179 -0.965744
2010-07-29 02:38:32 51°13.661 2°55.961 22.8879 0.919223 5.15179 -0.965744
2010-07-29 02:38:37 51°13.661 2°55.96 22.8879 0.919118 5.15116 -0.965744
2010-07-29 02:38:42 51°13.661 2°55.96 22.8879 0.919118 5.15116 -1.000568
2010-07-29 02:38:47 51°13.661 2°55.96 22.8864 0.919223 5.15179 -1.000568
2010-07-29 02:38:52 51°13.661 2°55.96 22.8857 0.919118 5.15116 -1.000568
2010-07-29 02:38:57 51°13.661 2°55.96 22.8858 0.919118 5.151234 -1.000568
2010-07-29 02:39:02 51°13.661 2°55.96 22.8857 0.919118 5.151234 -1.000568
2010-07-29 02:39:07 51°13.661 2°55.961 22.8853 0.919118 5.151382 -1.000568
2010-07-29 02:39:12 51°13.661 2°55.961 22.8854 0.919118 5.151308 -1.000568
2010-07-29 02:39:17 51°13.661 2°55.961 22.8851 0.919118 5.151382 -1.000568
2010-07-29 02:39:22 51°13.66 2°55.961 22.8867 0.919118 5.151455 -1.035392
2010-07-29 02:39:27 51°13.66 2°55.961 22.8862 0.919118 5.151455 -1.035392
2010-07-29 02:39:32 51°13.66 2°55.961 22.8864 0.919118 5.151529 -1.000568
2010-07-29 02:39:37 51°13.66 2°55.961 22.886 0.919118 5.151455 -1.000568
2010-07-29 02:39:42 51°13.66 2°55.961 22.8857 0.919118 5.151603 -1.000568
2010-07-29 02:39:47 51°13.66 2°55.961 22.8853 0.919118 5.151603 -1.000568
2010-07-29 02:39:52 51°13.66 2°55.961 22.8858 0.919118 5.151677 -1.000568
2010-07-29 02:39:57 51°13.66 2°55.961 22.8849 0.919118 5.151677 -1.000568
2010-07-29 02:40:02 51°13.66 2°55.961 22.8841 0.919118 5.151751 -0.965744
2010-07-29 02:40:07 51°13.66 2°55.961 22.8845 0.919118 5.151825 -1.000568
2010-07-29 02:40:12 51°13.66 2°55.961 22.8847 0.919118 5.151825 -1.000568
2010-07-29 02:40:17 51°13.66 2°55.961 22.8851 0.919013 5.151269 -1.000568
2010-07-29 02:40:22 51°13.66 2°55.961 22.8857 0.919118 5.151974 -1.000568
2010-07-29 02:40:27 51°13.66 2°55.961 22.8852 0.919118 5.151974 -1.000568
2010-07-29 02:40:32 51°13.66 2°55.961 22.885 0.919013 5.151417 -0.965744
2010-07-29 02:40:37 51°13.66 2°55.961 22.8837 0.919013 5.151565 -1.000568
2010-07-29 02:40:42 51°13.66 2°55.961 22.8842 0.919118 5.152122 -1.035392
2010-07-29 02:40:47 51°13.66 2°55.961 22.8836 0.919013 5.151639 -1.000568
2010-07-29 02:40:52 51°13.66 2°55.961 22.8836 0.919013 5.151639 -0.965744
2010-07-29 02:40:57 51°13.66 2°55.961 22.8835 0.919013 5.151639 -0.965744
2010-07-29 02:41:02 51°13.66 2°55.961 22.8829 0.919013 5.151787 -1.000568
2010-07-29 02:41:07 51°13.66 2°55.961 22.882 0.919013 5.151861 -1.000568
2010-07-29 02:41:12 51°13.66 2°55.961 22.8816 0.919013 5.151861 -1.035392
2010-07-29 02:41:17 51°13.66 2°55.961 22.8813 0.919013 5.151935 -1.000568
2010-07-29 02:41:22 51°13.66 2°55.961 22.8828 0.919013 5.152009 -1.000568
2010-07-29 02:41:27 51°13.66 2°55.961 22.8825 0.919013 5.152009 -1.000568
2010-07-29 02:41:32 51°13.66 2°55.961 22.8819 0.919013 5.152083 -0.965744
2010-07-29 02:41:37 51°13.66 2°55.961 22.8809 0.919013 5.152157 -1.000568
2010-07-29 02:41:42 51°13.66 2°55.961 22.8822 0.919013 5.152157 -1.035392
2010-07-29 02:41:47 51°13.66 2°55.961 22.8816 0.919013 5.152231 -0.965744
2010-07-29 02:41:52 51°13.66 2°55.961 22.8812 0.919013 5.152305 -1.000568
2010-07-29 02:41:57 51°13.66 2°55.961 22.8826 0.919013 5.152379 -0.965744
2010-07-29 02:42:02 51°13.66 2°55.961 22.8827 0.919013 5.152379 -0.965744
2010-07-29 02:42:07 51°13.66 2°55.961 22.8834 0.918909 5.151823 -0.965744
2010-07-29 02:42:12 51°13.66 2°55.961 22.8826 0.919013 5.152453 -1.000568
2010-07-29 02:42:17 51°13.66 2°55.961 22.8825 0.919013 5.152453 -1.000568
2010-07-29 02:42:22 51°13.66 2°55.961 22.8829 0.918909 5.151897 -1.000568
2010-07-29 02:42:27 51°13.66 2°55.961 22.8835 0.918909 5.151897 -1.000568
2010-07-29 02:42:32 51°13.66 2°55.961 22.8838 0.918909 5.151971 -0.965744
2010-07-29 02:42:37 51°13.66 2°55.961 22.8832 0.918909 5.152045 -0.965744
2010-07-29 02:42:42 51°13.66 2°55.961 22.8814 0.918909 5.151971 -1.000568
2010-07-29 02:42:47 51°13.66 2°55.961 22.8787 0.918909 5.151971 -1.000568
2010-07-29 02:42:52 51°13.66 2°55.961 22.8788 0.918909 5.152119 -0.965744
2010-07-29 02:42:57 51°13.66 2°55.961 22.8786 0.918909 5.152119 -0.965744
2010-07-29 02:43:02 51°13.66 2°55.961 22.8784 0.918909 5.152119 -0.965744
2010-07-29 02:43:07 51°13.66 2°55.961 22.8792 0.918909 5.152119 -1.000568
2010-07-29 02:43:12 51°13.66 2°55.961 22.8783 0.918909 5.152193 -1.000568
2010-07-29 02:43:17 51°13.66 2°55.961 22.8781 0.918909 5.152267 -1.000568
2010-07-29 02:43:22 51°13.66 2°55.961 22.878 0.918909 5.152341 -1.000568
2010-07-29 02:43:27 51°13.66 2°55.961 22.8772 0.918909 5.152341 -1.000568
2010-07-29 02:43:32 51°13.66 2°55.961 22.8758 0.918909 5.152341 -1.000568
2010-07-29 02:43:37 51°13.66 2°55.961 22.8754 0.918909 5.152341 -0.965744
2010-07-29 02:43:42 51°13.659 2°55.962 22.8757 0.918909 5.152341 -1.000568
2010-07-29 02:43:47 51°13.659 2°55.962 22.8755 0.918909 5.152341 -0.965744
2010-07-29 02:43:52 51°13.659 2°55.962 22.8762 0.918909 5.152489 -0.965744
2010-07-29 02:43:57 51°13.659 2°55.961 22.877 0.918909 5.152489 -0.965744
2010-07-29 02:44:02 51°13.659 2°55.962 22.8769 0.918909 5.152489 -1.000568
2010-07-29 02:44:07 51°13.659 2°55.962 22.8767 0.918804 5.151932 -1.000568
2010-07-29 02:44:12 51°13.66 2°55.962 22.8757 0.918804 5.152006 -0.965744
2010-07-29 02:44:17 51°13.66 2°55.962 22.8755 0.918804 5.152006 -1.000568
2010-07-29 02:44:22 51°13.66 2°55.962 22.8754 0.918804 5.152006 -0.965744
2010-07-29 02:44:27 51°13.66 2°55.962 22.8755 0.918804 5.152006 -0.965744
2010-07-29 02:44:32 51°13.66 2°55.962 22.8757 0.918804 5.15208 -0.965744
2010-07-29 02:44:37 51°13.66 2°55.962 22.8769 0.918804 5.15208 -1.035392
2010-07-29 02:44:42 51°13.66 2°55.962 22.8774 0.918804 5.152154 -1.000568
2010-07-29 02:44:47 51°13.66 2°55.962 22.8775 0.918804 5.152229 -1.000568
2010-07-29 02:44:52 51°13.66 2°55.962 22.8772 0.918804 5.152229 -1.000568
2010-07-29 02:44:57 51°13.66 2°55.962 22.8765 0.918804 5.152303 -0.965744
2010-07-29 02:45:02 51°13.66 2°55.962 22.8758 0.918804 5.152303 -0.965744
2010-07-29 02:45:07 51°13.66 2°55.961 22.8759 0.918699 5.151746 -1.000568
2010-07-29 02:45:12 51°13.661 2°55.961 22.8755 0.918804 5.152377 -0.965744
2010-07-29 02:45:17 51°13.661 2°55.961 22.8764 0.918804 5.152377 -1.035392
2010-07-29 02:45:22 51°13.661 2°55.961 22.8765 0.918804 5.152451 -1.000568
2010-07-29 02:45:27 51°13.661 2°55.961 22.8769 0.918804 5.152451 -1.000568
2010-07-29 02:45:32 51°13.661 2°55.961 22.8771 0.918699 5.151894 -0.965744
2010-07-29 02:45:37 51°13.661 2°55.961 22.8773 0.918699 5.151894 -1.000568
2010-07-29 02:45:42 51°13.661 2°55.961 22.8774 0.918699 5.151894 -1.000568
2010-07-29 02:45:47 51°13.661 2°55.961 22.8764 0.918699 5.151968 -1.000568
2010-07-29 02:45:52 51°13.661 2°55.961 22.8763 0.918804 5.152599 -1.000568
2010-07-29 02:45:57 51°13.661 2°55.961 22.8777 0.918804 5.152599 -1.000568
2010-07-29 02:46:02 51°13.661 2°55.961 22.8774 0.918699 5.152042 -1.000568
2010-07-29 02:46:07 51°13.661 2°55.961 22.8767 0.918699 5.152042 -0.965744
2010-07-29 02:46:12 51°13.661 2°55.96 22.8761 0.918699 5.152042 -1.000568
2010-07-29 02:46:17 51°13.661 2°55.961 22.8756 0.918699 5.152116 -1.000568
2010-07-29 02:46:22 51°13.661 2°55.961 22.8761 0.918699 5.152042 -1.000568
2010-07-29 02:46:27 51°13.66 2°55.961 22.8756 0.918699 5.152042 -1.000568
2010-07-29 02:46:32 51°13.66 2°55.961 22.8749 0.918699 5.152116 -0.965744
2010-07-29 02:46:37 51°13.66 2°55.961 22.8756 0.918699 5.15219 -0.965744
2010-07-29 02:46:42 51°13.661 2°55.961 22.8762 0.918699 5.15219 -1.000568
2010-07-29 02:46:47 51°13.66 2°55.961 22.8759 0.918699 5.15219 -1.000568
2010-07-29 02:46:52 51°13.66 2°55.961 22.876 0.918699 5.152338 -1.035392
2010-07-29 02:46:57 51°13.66 2°55.961 22.876 0.918699 5.152338 -1.035392
2010-07-29 02:47:02 51°13.66 2°55.961 22.8755 0.918699 5.152338 -1.000568
2010-07-29 02:47:07 51°13.661 2°55.96 22.8754 0.918699 5.152412 -1.000568
2010-07-29 02:47:12 51°13.661 2°55.96 22.8745 0.918699 5.152338 -1.000568
2010-07-29 02:47:17 51°13.661 2°55.96 22.8748 0.918699 5.152338 -0.965744
2010-07-29 02:47:22 51°13.661 2°55.96 22.8749 0.918699 5.152412 -0.965744
2010-07-29 02:47:27 51°13.661 2°55.96 22.8758 0.918699 5.152412 -0.965744
2010-07-29 02:47:32 51°13.661 2°55.96 22.8766 0.918595 5.151856 -0.965744
2010-07-29 02:47:37 51°13.66 2°55.96 22.8762 0.918595 5.15193 -0.965744
2010-07-29 02:47:42 51°13.66 2°55.96 22.8757 0.918595 5.151856 -0.965744
2010-07-29 02:47:47 51°13.66 2°55.959 22.8746 0.918595 5.15193 -1.000568
2010-07-29 02:47:52 51°13.66 2°55.959 22.8751 0.918595 5.15193 -1.000568
2010-07-29 02:47:57 51°13.66 2°55.959 22.875 0.918595 5.15193 -1.000568
2010-07-29 02:48:02 51°13.66 2°55.959 22.8755 0.918595 5.152004 -1.000568
2010-07-29 02:48:07 51°13.66 2°55.959 22.8736 0.918595 5.15193 -1.000568
2010-07-29 02:48:12 51°13.66 2°55.959 22.8731 0.918595 5.152078 -1.035392
2010-07-29 02:48:17 51°13.66 2°55.959 22.8726 0.918595 5.152078 -0.965744
2010-07-29 02:48:22 51°13.66 2°55.959 22.8726 0.918595 5.152078 -1.000568
2010-07-29 02:48:27 51°13.661 2°55.959 22.8729 0.918595 5.152152 -1.035392
2010-07-29 02:48:32 51°13.66 2°55.959 22.8731 0.918595 5.152152 -1.035392
2010-07-29 02:48:37 51°13.66 2°55.959 22.8721 0.918595 5.152152 -1.000568
2010-07-29 02:48:42 51°13.66 2°55.959 22.8716 0.918595 5.152226 -1.000568
2010-07-29 02:48:47 51°13.66 2°55.959 22.8721 0.918595 5.152152 -1.000568
2010-07-29 02:48:52 51°13.66 2°55.959 22.8723 0.91849 5.151669 -1.000568
2010-07-29 02:48:57 51°13.66 2°55.959 22.8716 0.91849 5.151669 -1.000568
2010-07-29 02:49:02 51°13.66 2°55.959 22.8719 0.91849 5.151817 -1.000568
2010-07-29 02:49:07 51°13.66 2°55.959 22.872 0.918595 5.152448 -1.000568
2010-07-29 02:49:12 51°13.66 2°55.959 22.8704 0.91849 5.151743 -1.035392
2010-07-29 02:49:17 51°13.66 2°55.959 22.871 0.91849 5.151817 -1.000568
2010-07-29 02:49:22 51°13.66 2°55.959 22.8712 0.91849 5.151891 -1.000568
2010-07-29 02:49:27 51°13.66 2°55.959 22.8708 0.91849 5.151891 -1.000568
2010-07-29 02:49:32 51°13.66 2°55.958 22.8721 0.91849 5.151965 -1.000568
2010-07-29 02:49:37 51°13.66 2°55.958 22.872 0.91849 5.15204 -1.000568
2010-07-29 02:49:42 51°13.66 2°55.959 22.8721 0.91849 5.152114 -1.000568
2010-07-29 02:49:47 51°13.66 2°55.959 22.8717 0.91849 5.152114 -1.000568
2010-07-29 02:49:52 51°13.66 2°55.959 22.8717 0.91849 5.152114 -1.000568
2010-07-29 02:49:57 51°13.661 2°55.959 22.871 0.91849 5.152262 -1.000568
2010-07-29 02:50:02 51°13.661 2°55.959 22.8705 0.91849 5.152262 -1.000568
2010-07-29 02:50:07 51°13.661 2°55.958 22.8703 0.91849 5.152262 -1.000568
2010-07-29 02:50:12 51°13.661 2°55.958 22.87 0.91849 5.152262 -1.000568
2010-07-29 02:50:17 51°13.661 2°55.958 22.8695 0.91849 5.152336 -1.000568
2010-07-29 02:50:22 51°13.661 2°55.958 22.8689 0.918385 5.151705 -1.000568
2010-07-29 02:50:27 51°13.661 2°55.958 22.8686 0.918385 5.151705 -1.000568
2010-07-29 02:50:32 51°13.662 2°55.958 22.8683 0.91849 5.15241 -1.000568
2010-07-29 02:50:37 51°13.662 2°55.958 22.8679 0.91849 5.152558 -1.000568
2010-07-29 02:50:42 51°13.662 2°55.958 22.8681 0.91849 5.152484 -1.000568
2010-07-29 02:50:47 51°13.662 2°55.958 22.868 0.91849 5.152558 -1.000568
2010-07-29 02:50:52 51°13.662 2°55.958 22.8685 0.918385 5.152001 -1.000568
2010-07-29 02:50:57 51°13.662 2°55.958 22.869 0.918385 5.152001 -1.000568
2010-07-29 02:51:02 51°13.662 2°55.958 22.869 0.918385 5.152075 -1.000568
2010-07-29 02:51:07 51°13.662 2°55.958 22.8683 0.918385 5.152149 -1.000568
2010-07-29 02:51:12 51°13.662 2°55.959 22.8684 0.918385 5.152149 -0.965744
2010-07-29 02:51:17 51°13.662 2°55.959 22.8686 0.918385 5.152298 -1.000568
2010-07-29 02:51:22 51°13.662 2°55.959 22.8671 0.918385 5.152298 -1.000568
2010-07-29 02:51:27 51°13.663 2°55.959 22.8683 0.918385 5.152372 -1.000568
2010-07-29 02:51:32 51°13.663 2°55.959 22.8675 0.918385 5.152372 -1.000568
2010-07-29 02:51:37 51°13.663 2°55.959 22.8672 0.918385 5.152372 -1.035392
2010-07-29 02:51:42 51°13.663 2°55.959 22.8662 0.918385 5.152372 -1.000568
2010-07-29 02:51:47 51°13.663 2°55.959 22.8664 0.918385 5.152446 -0.965744
2010-07-29 02:51:52 51°13.664 2°55.959 22.8682 0.918385 5.15252 -1.000568
2010-07-29 02:51:57 51°13.664 2°55.959 22.8688 0.918385 5.15252 -1.000568
2010-07-29 02:52:02 51°13.664 2°55.959 22.8679 0.918385 5.152594 -0.965744
2010-07-29 02:52:07 51°13.664 2°55.959 22.8679 0.918385 5.152594 -1.000568
2010-07-29 02:52:12 51°13.664 2°55.959 22.8668 0.918385 5.152594 -1.000568
2010-07-29 02:52:17 51°13.664 2°55.959 22.8669 0.918385 5.152594 -1.000568
2010-07-29 02:52:22 51°13.664 2°55.96 22.8669 0.918385 5.152742 -1.000568
2010-07-29 02:52:27 51°13.664 2°55.96 22.8667 0.918385 5.152742 -1.000568
2010-07-29 02:52:32 51°13.664 2°55.96 22.8665 0.918281 5.152111 -0.965744
2010-07-29 02:52:37 51°13.664 2°55.96 22.8669 0.918385 5.152816 -1.000568
2010-07-29 02:52:42 51°13.664 2°55.96 22.8675 0.918281 5.152185 -1.000568
2010-07-29 02:52:47 51°13.664 2°55.96 22.8669 0.918281 5.152185 -1.000568
2010-07-29 02:52:52 51°13.664 2°55.96 22.8672 0.918385 5.152891 -1.000568
2010-07-29 02:52:57 51°13.664 2°55.959 22.8671 0.918385 5.152891 -1.000568
2010-07-29 02:53:02 51°13.665 2°55.959 22.8672 0.918281 5.152334 -0.965744
2010-07-29 02:53:07 51°13.665 2°55.959 22.8668 0.918281 5.152334 -1.035392
2010-07-29 02:53:12 51°13.665 2°55.959 22.8654 0.918281 5.152408 -1.000568
2010-07-29 02:53:17 51°13.665 2°55.959 22.8659 0.918281 5.152408 -0.965744
2010-07-29 02:53:22 51°13.664 2°55.959 22.8671 0.918281 5.152482 -1.000568
2010-07-29 02:53:27 51°13.664 2°55.958 22.8662 0.918281 5.152482 -1.000568
2010-07-29 02:53:32 51°13.665 2°55.958 22.8665 0.918281 5.152482 -1.000568
2010-07-29 02:53:37 51°13.665 2°55.958 22.8664 0.918281 5.152556 -1.000568
2010-07-29 02:53:42 51°13.665 2°55.958 22.8658 0.918281 5.152556 -1.000568
2010-07-29 02:53:47 51°13.665 2°55.958 22.8647 0.918281 5.152556 -1.000568
2010-07-29 02:53:52 51°13.665 2°55.958 22.8642 0.918281 5.15263 -0.965744
2010-07-29 02:53:57 51°13.665 2°55.958 22.8634 0.918281 5.15263 -0.965744
2010-07-29 02:54:02 51°13.665 2°55.958 22.8637 0.918281 5.152704 -1.000568
2010-07-29 02:54:07 51°13.665 2°55.957 22.8647 0.918281 5.152852 -1.035392
2010-07-29 02:54:12 51°13.665 2°55.957 22.8644 0.918281 5.152852 -1.000568
2010-07-29 02:54:17 51°13.665 2°55.957 22.8647 0.918281 5.152778 -1.000568
2010-07-29 02:54:22 51°13.665 2°55.959 22.8643 0.918281 5.152852 -0.965744
2010-07-29 02:54:27 51°13.664 2°55.963 22.8635 0.918281 5.152927 -0.965744
2010-07-29 02:54:32 51°13.664 2°55.962 22.8633 0.918281 5.152927 -0.965744
2010-07-29 02:54:37 51°13.662 2°55.965 22.8639 0.918176 5.15237 -1.000568
2010-07-29 02:54:42 51°13.662 2°55.965 22.8637 0.918176 5.152444 -1.000568
2010-07-29 02:54:47 51°13.663 2°55.964 22.8637 0.918176 5.152444 -1.000568
2010-07-29 02:54:52 51°13.663 2°55.963 22.8638 0.918176 5.152444 -1.000568
2010-07-29 02:54:57 51°13.664 2°55.962 22.8635 0.918176 5.152444 -1.000568
2010-07-29 02:55:02 51°13.664 2°55.961 22.8639 0.918176 5.152592 -1.000568
2010-07-29 02:55:07 51°13.665 2°55.96 22.8628 0.918176 5.152518 -0.965744
2010-07-29 02:55:12 51°13.665 2°55.959 22.862 0.918176 5.152518 -1.000568
2010-07-29 02:55:17 51°13.665 2°55.959 22.8611 0.918176 5.152666 -1.000568
2010-07-29 02:55:22 51°13.666 2°55.958 22.8611 0.918176 5.152666 -1.035392
2010-07-29 02:55:27 51°13.666 2°55.958 22.861 0.918176 5.152666 -1.035392
2010-07-29 02:55:32 51°13.665 2°55.957 22.862 0.918176 5.152666 -1.000568
2010-07-29 02:55:37 51°13.665 2°55.957 22.8626 0.918176 5.15274 -1.000568
2010-07-29 02:55:42 51°13.665 2°55.958 22.8626 0.918176 5.15274 -0.965744
2010-07-29 02:55:47 51°13.665 2°55.958 22.8628 0.918176 5.15274 -1.000568
2010-07-29 02:55:52 51°13.665 2°55.959 22.8623 0.918071 5.152109 -0.965744
2010-07-29 02:55:57 51°13.665 2°55.959 22.8608 0.918071 5.152109 -0.965744
2010-07-29 02:56:02 51°13.665 2°55.959 22.8595 0.918176 5.152888 -1.000568
2010-07-29 02:56:07 51°13.664 2°55.96 22.8602 0.918176 5.152888 -1.035392
2010-07-29 02:56:12 51°13.665 2°55.959 22.8597 0.918176 5.152814 -1.000568
2010-07-29 02:56:17 51°13.665 2°55.959 22.8597 0.918176 5.152888 -0.965744
2010-07-29 02:56:22 51°13.665 2°55.959 22.8604 0.918071 5.152331 -0.965744
2010-07-29 02:56:27 51°13.665 2°55.958 22.86 0.918071 5.152331 -0.965744
2010-07-29 02:56:32 51°13.665 2°55.958 22.8612 0.918071 5.152406 -1.000568
2010-07-29 02:56:37 51°13.665 2°55.958 22.8615 0.918071 5.152406 -0.965744
2010-07-29 02:56:42 51°13.665 2°55.958 22.8609 0.918071 5.15248 -1.000568
2010-07-29 02:56:47 51°13.665 2°55.958 22.861 0.918071 5.152554 -1.035392
2010-07-29 02:56:52 51°13.665 2°55.958 22.8604 0.918071 5.152554 -0.965744
2010-07-29 02:56:57 51°13.665 2°55.958 22.8596 0.918071 5.152554 -0.965744
2010-07-29 02:57:02 51°13.665 2°55.958 22.8593 0.918071 5.152628 -1.035392
2010-07-29 02:57:07 51°13.665 2°55.958 22.8594 0.918071 5.152628 -1.000568
2010-07-29 02:57:12 51°13.665 2°55.959 22.8585 0.918071 5.152776 -0.965744
2010-07-29 02:57:17 51°13.665 2°55.959 22.8579 0.918071 5.152776 -1.000568
2010-07-29 02:57:22 51°13.665 2°55.96 22.8575 0.918071 5.152925 -0.965744
2010-07-29 02:57:27 51°13.665 2°55.96 22.8577 0.918071 5.152925 -0.965744
2010-07-29 02:57:32 51°13.665 2°55.96 22.8581 0.918071 5.152925 -1.000568
2010-07-29 02:57:37 51°13.665 2°55.961 22.8577 0.918071 5.152925 -1.000568
2010-07-29 02:57:42 51°13.665 2°55.961 22.8577 0.918071 5.152999 -1.000568
2010-07-29 02:57:47 51°13.664 2°55.961 22.8573 0.918071 5.153073 -0.965744
2010-07-29 02:57:52 51°13.665 2°55.961 22.8575 0.918071 5.153147 -1.000568
2010-07-29 02:57:57 51°13.665 2°55.961 22.8571 0.918071 5.153147 -1.000568
2010-07-29 02:58:02 51°13.665 2°55.961 22.8579 0.918071 5.153147 -1.035392
2010-07-29 02:58:07 51°13.665 2°55.961 22.8563 0.917967 5.15259 -1.035392
2010-07-29 02:58:12 51°13.665 2°55.961 22.856 0.917967 5.152664 -0.965744
2010-07-29 02:58:17 51°13.665 2°55.961 22.8561 0.918071 5.153295 -1.000568
2010-07-29 02:58:22 51°13.665 2°55.961 22.8564 0.917967 5.152738 -0.965744
2010-07-29 02:58:27 51°13.665 2°55.961 22.8566 0.917967 5.152738 -0.965744
2010-07-29 02:58:32 51°13.665 2°55.961 22.8575 0.917967 5.152738 -1.000568
2010-07-29 02:58:37 51°13.665 2°55.961 22.8572 0.917967 5.152887 -0.965744
2010-07-29 02:58:42 51°13.664 2°55.961 22.8563 0.917967 5.152887 -0.965744
2010-07-29 02:58:47 51°13.664 2°55.961 22.8567 0.917967 5.152961 -1.000568
2010-07-29 02:58:52 51°13.665 2°55.959 22.8564 0.917967 5.152961 -1.035392
2010-07-29 02:58:57 51°13.665 2°55.956 22.8557 0.917967 5.152961 -1.035392
2010-07-29 02:59:02 51°13.665 2°55.956 22.8561 0.917967 5.153035 -1.000568
2010-07-29 02:59:07 51°13.665 2°55.956 22.8556 0.917967 5.153109 -1.000568
2010-07-29 02:59:12 51°13.665 2°55.959 22.8554 0.917967 5.153035 -0.965744
2010-07-29 02:59:17 51°13.662 2°55.965 22.8546 0.917967 5.153183 -1.000568
2010-07-29 02:59:22 51°13.661 2°55.969 22.8549 0.917967 5.153183 -1.000568
2010-07-29 02:59:27 51°13.66 2°55.971 22.8553 0.917967 5.153332 -1.000568
2010-07-29 02:59:32 51°13.66 2°55.972 22.8552 0.917967 5.153332 -1.000568
2010-07-29 02:59:37 51°13.659 2°55.972 22.8548 0.917967 5.153332 -0.965744
2010-07-29 02:59:42 51°13.66 2°55.972 22.8541 0.917967 5.153332 -1.000568
2010-07-29 02:59:47 51°13.66 2°55.972 22.855 0.917862 5.152774 -1.000568
2010-07-29 02:59:52 51°13.66 2°55.971 22.855 0.917967 5.153406 -0.965744
2010-07-29 02:59:57 51°13.661 2°55.97 22.855 0.917967 5.153406 -0.965744
2010-07-29 03:00:02 51°13.662 2°55.97 22.8561 0.917967 5.153406 -1.000568
2010-07-29 03:00:07 51°13.663 2°55.97 22.856 0.917862 5.152848 -1.000568
2010-07-29 03:00:12 51°13.663 2°55.969 22.856 0.917862 5.152848 -1.000568
2010-07-29 03:00:17 51°13.664 2°55.969 22.8559 0.917862 5.152848 -1.000568
2010-07-29 03:00:22 51°13.664 2°55.968 22.8551 0.917862 5.152997 -1.000568
2010-07-29 03:00:27 51°13.665 2°55.968 22.8549 0.917862 5.152997 -1.000568
2010-07-29 03:00:32 51°13.665 2°55.968 22.8549 0.917862 5.152923 -1.000568
2010-07-29 03:00:37 51°13.665 2°55.968 22.8546 0.917862 5.152997 -0.965744
2010-07-29 03:00:42 51°13.665 2°55.968 22.8548 0.917862 5.152997 -1.000568
2010-07-29 03:00:47 51°13.665 2°55.968 22.8551 0.917862 5.153071 -0.965744
2010-07-29 03:00:52 51°13.665 2°55.968 22.854 0.917862 5.153145 -0.965744
2010-07-29 03:00:57 51°13.665 2°55.968 22.8535 0.917862 5.153071 -1.035392
2010-07-29 03:01:02 51°13.665 2°55.968 22.8529 0.917862 5.153071 -1.035392
2010-07-29 03:01:07 51°13.665 2°55.968 22.8533 0.917862 5.153071 -0.965744
2010-07-29 03:01:12 51°13.665 2°55.967 22.8532 0.917862 5.153145 -1.000568
2010-07-29 03:01:17 51°13.665 2°55.967 22.8532 0.917862 5.153145 -0.965744
2010-07-29 03:01:22 51°13.665 2°55.967 22.8546 0.917862 5.153219 -1.000568
2010-07-29 03:01:27 51°13.665 2°55.967 22.8553 0.917862 5.153219 -1.000568
2010-07-29 03:01:32 51°13.665 2°55.966 22.855 0.917862 5.153219 -1.000568
2010-07-29 03:01:37 51°13.665 2°55.966 22.8544 0.917862 5.153219 -1.000568
2010-07-29 03:01:42 51°13.666 2°55.966 22.8527 0.917862 5.153294 -1.000568
2010-07-29 03:01:47 51°13.666 2°55.965 22.8528 0.917757 5.152588 -1.000568
2010-07-29 03:01:52 51°13.666 2°55.965 22.8536 0.917757 5.152662 -1.000568
2010-07-29 03:01:57 51°13.666 2°55.964 22.8546 0.917757 5.152662 -1.000568
2010-07-29 03:02:02 51°13.666 2°55.964 22.8536 0.917757 5.152662 -0.965744
2010-07-29 03:02:07 51°13.666 2°55.963 22.8544 0.917757 5.152736 -0.965744
2010-07-29 03:02:12 51°13.666 2°55.963 22.8543 0.917757 5.15281 -1.000568
2010-07-29 03:02:17 51°13.666 2°55.963 22.8529 0.917757 5.152736 -1.000568
2010-07-29 03:02:22 51°13.666 2°55.963 22.8527 0.917757 5.15281 -1.000568
2010-07-29 03:02:27 51°13.666 2°55.963 22.8527 0.917757 5.15281 -1.000568
2010-07-29 03:02:32 51°13.666 2°55.963 22.8519 0.917757 5.152736 -1.000568
2010-07-29 03:02:37 51°13.666 2°55.963 22.8519 0.917757 5.15281 -1.000568
2010-07-29 03:02:42 51°13.666 2°55.963 22.8525 0.917757 5.152885 -1.000568
2010-07-29 03:02:47 51°13.666 2°55.963 22.8528 0.917757 5.152959 -1.000568
2010-07-29 03:02:52 51°13.666 2°55.963 22.8522 0.917757 5.152959 -1.000568
2010-07-29 03:02:57 51°13.665 2°55.963 22.8521 0.917757 5.152959 -1.000568
2010-07-29 03:03:02 51°13.665 2°55.962 22.8524 0.917757 5.152959 -1.000568
2010-07-29 03:03:07 51°13.665 2°55.962 22.8522 0.917757 5.153033 -0.965744
2010-07-29 03:03:12 51°13.665 2°55.962 22.8525 0.917757 5.153107 -1.000568
2010-07-29 03:03:17 51°13.665 2°55.962 22.8516 0.917757 5.153107 -1.000568
2010-07-29 03:03:22 51°13.665 2°55.962 22.8512 0.917653 5.15255 -1.000568
2010-07-29 03:03:27 51°13.665 2°55.963 22.8503 0.917653 5.15255 -1.000568
2010-07-29 03:03:32 51°13.665 2°55.963 22.8508 0.917757 5.153181 -0.965744
2010-07-29 03:03:37 51°13.665 2°55.962 22.8507 0.917653 5.15255 -1.000568
2010-07-29 03:03:42 51°13.665 2°55.962 22.8511 0.917653 5.152624 -1.000568
2010-07-29 03:03:47 51°13.665 2°55.962 22.852 0.917757 5.15333 -1.035392
2010-07-29 03:03:52 51°13.665 2°55.962 22.8515 0.917757 5.15333 -1.000568
2010-07-29 03:03:57 51°13.665 2°55.962 22.8509 0.917757 5.15333 -1.000568
2010-07-29 03:04:02 51°13.665 2°55.962 22.8504 0.917757 5.153404 -1.000568
2010-07-29 03:04:07 51°13.665 2°55.961 22.8495 0.917653 5.152772 -1.000568
2010-07-29 03:04:12 51°13.665 2°55.961 22.8499 0.917757 5.15333 -0.965744
2010-07-29 03:04:17 51°13.665 2°55.961 22.8499 0.917653 5.152847 -1.000568
2010-07-29 03:04:22 51°13.665 2°55.961 22.8495 0.917653 5.152847 -1.000568
2010-07-29 03:04:27 51°13.665 2°55.961 22.8496 0.917653 5.152847 -1.000568
2010-07-29 03:04:32 51°13.665 2°55.961 22.8487 0.917653 5.152921 -1.000568
2010-07-29 03:04:37 51°13.665 2°55.961 22.8482 0.917653 5.152921 -0.965744
2010-07-29 03:04:42 51°13.665 2°55.961 22.8488 0.917653 5.152921 -0.965744
2010-07-29 03:04:47 51°13.665 2°55.961 22.8492 0.917653 5.152921 -0.965744
2010-07-29 03:04:52 51°13.665 2°55.961 22.8491 0.917653 5.152995 -1.000568
2010-07-29 03:04:57 51°13.665 2°55.961 22.8493 0.917653 5.152995 -1.000568
2010-07-29 03:05:02 51°13.666 2°55.961 22.8481 0.917653 5.152995 -0.965744
2010-07-29 03:05:07 51°13.666 2°55.961 22.8479 0.917653 5.153144 -1.000568
2010-07-29 03:05:12 51°13.666 2°55.96 22.8469 0.917653 5.153069 -1.000568
2010-07-29 03:05:17 51°13.666 2°55.96 22.8469 0.917653 5.153144 -1.000568
2010-07-29 03:05:22 51°13.665 2°55.96 22.8468 0.917653 5.153144 -1.000568
2010-07-29 03:05:27 51°13.665 2°55.961 22.8467 0.917653 5.153144 -1.000568
2010-07-29 03:05:32 51°13.665 2°55.961 22.8473 0.917653 5.153218 -0.965744
2010-07-29 03:05:37 51°13.665 2°55.961 22.8474 0.917653 5.153292 -0.93092
2010-07-29 03:05:42 51°13.666 2°55.961 22.8476 0.917548 5.152734 -0.965744
2010-07-29 03:05:47 51°13.666 2°55.96 22.8473 0.917548 5.152734 -1.000568
2010-07-29 03:05:52 51°13.666 2°55.96 22.8473 0.917548 5.152809 -1.000568
2010-07-29 03:05:57 51°13.666 2°55.96 22.847 0.917548 5.152809 -1.000568
2010-07-29 03:06:02 51°13.666 2°55.96 22.8468 0.917548 5.152883 -1.000568
2010-07-29 03:06:07 51°13.666 2°55.96 22.8462 0.917548 5.152957 -1.000568
2010-07-29 03:06:12 51°13.666 2°55.96 22.8468 0.917548 5.153031 -1.000568
2010-07-29 03:06:17 51°13.666 2°55.961 22.8467 0.917548 5.153106 -1.000568
2010-07-29 03:06:22 51°13.666 2°55.961 22.8463 0.917548 5.15318 -0.965744
2010-07-29 03:06:27 51°13.665 2°55.961 22.8454 0.917548 5.15318 -0.965744
2010-07-29 03:06:32 51°13.665 2°55.961 22.846 0.917548 5.153254 -1.000568
2010-07-29 03:06:37 51°13.665 2°55.961 22.8455 0.917548 5.153328 -1.035392
2010-07-29 03:06:42 51°13.665 2°55.961 22.8452 0.917548 5.153402 -1.000568
2010-07-29 03:06:47 51°13.665 2°55.961 22.8451 0.917548 5.153477 -0.965744
2010-07-29 03:06:52 51°13.665 2°55.961 22.8443 0.917548 5.153551 -0.965744
2010-07-29 03:06:57 51°13.665 2°55.961 22.8441 0.917548 5.153551 -0.965744
2010-07-29 03:07:02 51°13.665 2°55.961 22.8449 0.917548 5.153625 -1.000568
2010-07-29 03:07:07 51°13.665 2°55.961 22.8458 0.917548 5.153699 -1.035392
2010-07-29 03:07:12 51°13.664 2°55.961 22.8467 0.917548 5.153699 -1.000568
2010-07-29 03:07:17 51°13.664 2°55.961 22.8471 0.917548 5.153774 -1.000568
2010-07-29 03:07:22 51°13.664 2°55.961 22.8463 0.917548 5.153848 -1.000568
2010-07-29 03:07:27 51°13.664 2°55.961 22.8467 0.917443 5.15329 -1.000568
2010-07-29 03:07:32 51°13.664 2°55.96 22.8463 0.917443 5.15329 -1.000568
2010-07-29 03:07:37 51°13.664 2°55.96 22.8457 0.917443 5.15329 -0.965744
2010-07-29 03:07:42 51°13.664 2°55.96 22.8449 0.917548 5.153922 -0.965744
2010-07-29 03:07:47 51°13.664 2°55.96 22.8449 0.917443 5.153365 -1.000568
2010-07-29 03:07:52 51°13.664 2°55.96 22.8447 0.917443 5.153439 -1.000568
2010-07-29 03:07:57 51°13.664 2°55.96 22.8442 0.917443 5.153439 -1.000568
2010-07-29 03:08:02 51°13.664 2°55.96 22.8441 0.917443 5.153513 -1.000568
2010-07-29 03:08:07 51°13.664 2°55.96 22.8429 0.917443 5.153513 -1.000568
2010-07-29 03:08:12 51°13.664 2°55.96 22.8424 0.917443 5.153513 -1.000568
2010-07-29 03:08:17 51°13.663 2°55.961 22.8429 0.917443 5.153662 -1.000568
2010-07-29 03:08:22 51°13.663 2°55.961 22.8423 0.917443 5.153662 -0.965744
2010-07-29 03:08:27 51°13.663 2°55.961 22.8426 0.917443 5.153662 -0.965744
2010-07-29 03:08:32 51°13.663 2°55.96 22.8425 0.917443 5.153736 -1.000568
2010-07-29 03:08:37 51°13.664 2°55.96 22.8429 0.917443 5.15381 -1.000568
2010-07-29 03:08:42 51°13.663 2°55.96 22.8427 0.917443 5.153736 -1.000568
2010-07-29 03:08:47 51°13.664 2°55.96 22.842 0.917443 5.15381 -0.965744
2010-07-29 03:08:52 51°13.664 2°55.96 22.8415 0.917443 5.153959 -1.000568
2010-07-29 03:08:57 51°13.664 2°55.96 22.8419 0.917443 5.153959 -1.000568
2010-07-29 03:09:02 51°13.664 2°55.96 22.842 0.917339 5.153327 -1.000568
2010-07-29 03:09:07 51°13.664 2°55.96 22.8405 0.917339 5.153401 -1.000568
2010-07-29 03:09:12 51°13.664 2°55.96 22.8406 0.917339 5.153475 -1.000568
2010-07-29 03:09:17 51°13.664 2°55.961 22.8405 0.917339 5.153401 -1.000568
2010-07-29 03:09:22 51°13.663 2°55.96 22.8414 0.917339 5.153475 -1.000568
2010-07-29 03:09:27 51°13.663 2°55.961 22.8414 0.917339 5.153475 -1.000568
2010-07-29 03:09:32 51°13.663 2°55.961 22.8413 0.917339 5.15355 -1.000568
2010-07-29 03:09:37 51°13.663 2°55.961 22.8417 0.917339 5.153624 -0.965744
2010-07-29 03:09:42 51°13.663 2°55.96 22.8406 0.917339 5.153624 -1.000568
2010-07-29 03:09:47 51°13.663 2°55.96 22.8406 0.917339 5.153698 -0.965744
2010-07-29 03:09:52 51°13.663 2°55.96 22.8406 0.917339 5.153698 -1.000568
2010-07-29 03:09:57 51°13.663 2°55.96 22.8403 0.917339 5.153698 -1.000568
2010-07-29 03:10:02 51°13.663 2°55.96 22.8396 0.917339 5.153698 -0.965744
2010-07-29 03:10:07 51°13.663 2°55.96 22.8401 0.917339 5.153847 -1.035392
2010-07-29 03:10:12 51°13.663 2°55.96 22.8403 0.917339 5.153847 -1.000568
2010-07-29 03:10:17 51°13.663 2°55.96 22.8402 0.917339 5.153847 -1.000568
2010-07-29 03:10:22 51°13.663 2°55.96 22.8407 0.917339 5.153847 -0.965744
2010-07-29 03:10:27 51°13.663 2°55.96 22.8396 0.917339 5.153847 -0.965744
2010-07-29 03:10:32 51°13.663 2°55.96 22.8397 0.917339 5.153921 -1.000568
2010-07-29 03:10:37 51°13.662 2°55.961 22.8387 0.917339 5.154069 -1.000568
2010-07-29 03:10:42 51°13.662 2°55.961 22.8389 0.917339 5.153995 -1.035392
2010-07-29 03:10:47 51°13.662 2°55.961 22.8386 0.917234 5.153437 -1.000568
2010-07-29 03:10:52 51°13.662 2°55.961 22.839 0.917339 5.154069 -0.965744
2010-07-29 03:10:57 51°13.662 2°55.961 22.8395 0.917339 5.154069 -0.965744
2010-07-29 03:11:02 51°13.662 2°55.961 22.8401 0.917234 5.153586 -0.965744
2010-07-29 03:11:07 51°13.661 2°55.961 22.8399 0.917234 5.153512 -0.965744
2010-07-29 03:11:12 51°13.661 2°55.961 22.8398 0.917234 5.153586 -1.035392
2010-07-29 03:11:17 51°13.661 2°55.961 22.8393 0.917234 5.153586 -0.965744
2010-07-29 03:11:22 51°13.661 2°55.961 22.8381 0.917234 5.15366 -0.965744
2010-07-29 03:11:27 51°13.662 2°55.961 22.8376 0.917234 5.15366 -0.965744
2010-07-29 03:11:32 51°13.662 2°55.961 22.8381 0.917234 5.15366 -1.000568
2010-07-29 03:11:37 51°13.662 2°55.961 22.8393 0.917234 5.153735 -1.000568
2010-07-29 03:11:42 51°13.662 2°55.961 22.8387 0.917234 5.153735 -1.000568
2010-07-29 03:11:47 51°13.662 2°55.961 22.8383 0.917234 5.153809 -0.965744
2010-07-29 03:11:52 51°13.662 2°55.961 22.8378 0.917234 5.153809 -0.965744
2010-07-29 03:11:57 51°13.662 2°55.961 22.8383 0.917234 5.153809 -0.965744
2010-07-29 03:12:02 51°13.662 2°55.961 22.8374 0.917129 5.153325 -1.000568
2010-07-29 03:12:07 51°13.661 2°55.961 22.8365 0.917129 5.153325 -1.000568
2010-07-29 03:12:12 51°13.661 2°55.961 22.8358 0.917234 5.154032 -1.000568
2010-07-29 03:12:17 51°13.661 2°55.961 22.8367 0.917129 5.153325 -1.000568
2010-07-29 03:12:22 51°13.66 2°55.961 22.837 0.917129 5.1534 -1.000568
2010-07-29 03:12:27 51°13.66 2°55.961 22.8367 0.917234 5.154106 -0.965744
2010-07-29 03:12:32 51°13.66 2°55.961 22.8366 0.917234 5.154106 -0.965744
2010-07-29 03:12:37 51°13.66 2°55.962 22.8348 0.917129 5.1534 -0.965744
2010-07-29 03:12:42 51°13.66 2°55.962 22.8335 0.917129 5.153548 -1.000568
2010-07-29 03:12:47 51°13.66 2°55.962 22.8337 0.917129 5.153623 -0.965744
2010-07-29 03:12:52 51°13.66 2°55.961 22.833 0.917129 5.153623 -0.965744
2010-07-29 03:12:57 51°13.66 2°55.961 22.8337 0.917129 5.153623 -0.965744
2010-07-29 03:13:02 51°13.66 2°55.961 22.8345 0.917129 5.153697 -1.000568
2010-07-29 03:13:07 51°13.661 2°55.961 22.8338 0.917129 5.153697 -1.000568
2010-07-29 03:13:12 51°13.661 2°55.961 22.8339 0.917129 5.153697 -1.000568
2010-07-29 03:13:17 51°13.661 2°55.961 22.8349 0.917129 5.153697 -0.965744
2010-07-29 03:13:22 51°13.66 2°55.961 22.8355 0.917025 5.153139 -0.965744
2010-07-29 03:13:27 51°13.66 2°55.961 22.836 0.917025 5.153139 -0.965744
2010-07-29 03:13:32 51°13.66 2°55.961 22.8354 0.917025 5.153213 -1.000568
2010-07-29 03:13:37 51°13.66 2°55.961 22.8352 0.917025 5.153213 -1.000568
2010-07-29 03:13:42 51°13.66 2°55.961 22.8355 0.917025 5.153213 -1.000568
2010-07-29 03:13:47 51°13.66 2°55.961 22.8356 0.917025 5.153288 -1.035392
2010-07-29 03:13:52 51°13.661 2°55.961 22.8358 0.917025 5.153288 -1.000568
2010-07-29 03:13:57 51°13.661 2°55.961 22.835 0.917025 5.153288 -1.000568
2010-07-29 03:14:02 51°13.661 2°55.961 22.8357 0.917129 5.153994 -0.965744
2010-07-29 03:14:07 51°13.661 2°55.961 22.8353 0.917025 5.153436 -1.035392
2010-07-29 03:14:12 51°13.661 2°55.961 22.8347 0.917025 5.153436 -0.965744
2010-07-29 03:14:17 51°13.661 2°55.961 22.8343 0.917025 5.153362 -1.000568
2010-07-29 03:14:22 51°13.661 2°55.961 22.8346 0.917025 5.153436 -1.000568
2010-07-29 03:14:27 51°13.661 2°55.961 22.8339 0.917025 5.153436 -1.000568
2010-07-29 03:14:32 51°13.661 2°55.961 22.8333 0.917025 5.15351 -1.000568
2010-07-29 03:14:37 51°13.661 2°55.961 22.833 0.917025 5.15351 -1.000568
2010-07-29 03:14:42 51°13.661 2°55.961 22.8327 0.91692 5.152878 -1.000568
2010-07-29 03:14:47 51°13.661 2°55.961 22.8323 0.91692 5.152878 -0.965744
2010-07-29 03:14:52 51°13.661 2°55.961 22.8326 0.917025 5.153585 -1.000568
2010-07-29 03:14:57 51°13.661 2°55.961 22.8322 0.917025 5.153585 -1.000568
2010-07-29 03:15:02 51°13.661 2°55.961 22.8328 0.91692 5.152953 -1.000568
2010-07-29 03:15:07 51°13.661 2°55.961 22.8337 0.91692 5.152953 -1.000568
2010-07-29 03:15:12 51°13.661 2°55.961 22.8343 0.91692 5.153027 -1.000568
2010-07-29 03:15:17 51°13.661 2°55.961 22.8339 0.91692 5.153027 -1.000568
2010-07-29 03:15:22 51°13.661 2°55.961 22.8327 0.91692 5.153101 -0.965744
2010-07-29 03:15:27 51°13.661 2°55.961 22.8325 0.91692 5.153101 -1.035392
2010-07-29 03:15:32 51°13.661 2°55.961 22.8315 0.91692 5.153101 -1.035392
2010-07-29 03:15:37 51°13.661 2°55.961 22.8329 0.91692 5.153027 -0.965744
2010-07-29 03:15:42 51°13.661 2°55.961 22.8321 0.91692 5.153176 -0.965744
2010-07-29 03:15:47 51°13.661 2°55.961 22.8317 0.91692 5.153176 -1.000568
2010-07-29 03:15:52 51°13.662 2°55.96 22.8316 0.91692 5.153176 -1.000568
2010-07-29 03:15:57 51°13.662 2°55.961 22.8306 0.916815 5.152543 -1.000568
2010-07-29 03:16:02 51°13.662 2°55.96 22.8323 0.916815 5.152543 -1.000568
2010-07-29 03:16:07 51°13.662 2°55.96 22.8317 0.91692 5.153176 -1.035392
2010-07-29 03:16:12 51°13.661 2°55.96 22.8317 0.916815 5.152692 -1.000568
2010-07-29 03:16:17 51°13.661 2°55.96 22.8309 0.916815 5.152692 -1.000568
2010-07-29 03:16:22 51°13.661 2°55.96 22.8302 0.916815 5.152692 -1.000568
2010-07-29 03:16:27 51°13.661 2°55.96 22.8302 0.916815 5.152692 -1.000568
2010-07-29 03:16:32 51°13.661 2°55.96 22.8291 0.916815 5.152766 -1.000568
2010-07-29 03:16:37 51°13.661 2°55.96 22.83 0.916815 5.152841 -0.965744
2010-07-29 03:16:42 51°13.661 2°55.96 22.8295 0.916815 5.152915 -1.000568
2010-07-29 03:16:47 51°13.661 2°55.96 22.8307 0.916815 5.152915 -0.965744
2010-07-29 03:16:52 51°13.661 2°55.961 22.8304 0.916815 5.152989 -1.000568
2010-07-29 03:16:57 51°13.661 2°55.961 22.8306 0.916815 5.152989 -1.000568
2010-07-29 03:17:02 51°13.66 2°55.961 22.8301 0.916815 5.152989 -0.965744
2010-07-29 03:17:07 51°13.661 2°55.961 22.8308 0.916815 5.153063 -0.965744
2010-07-29 03:17:12 51°13.661 2°55.961 22.8297 0.916711 5.152506 -1.000568
2010-07-29 03:17:17 51°13.661 2°55.961 22.8301 0.916815 5.153138 -0.965744
2010-07-29 03:17:22 51°13.661 2°55.961 22.8281 0.916711 5.15258 -1.000568
2010-07-29 03:17:27 51°13.661 2°55.961 22.8271 0.916711 5.15258 -1.000568
2010-07-29 03:17:32 51°13.66 2°55.961 22.8279 0.916815 5.153212 -1.000568
2010-07-29 03:17:37 51°13.66 2°55.961 22.8273 0.916711 5.15258 -0.965744
2010-07-29 03:17:42 51°13.66 2°55.961 22.8282 0.916711 5.152654 -0.965744
2010-07-29 03:17:47 51°13.66 2°55.961 22.8288 0.916711 5.152654 -0.965744
2010-07-29 03:17:52 51°13.66 2°55.961 22.8289 0.916711 5.152728 -1.000568
2010-07-29 03:17:57 51°13.66 2°55.961 22.8286 0.916711 5.152728 -1.000568
2010-07-29 03:18:02 51°13.66 2°55.961 22.8295 0.916711 5.152654 -1.000568
2010-07-29 03:18:07 51°13.66 2°55.961 22.8293 0.916711 5.152803 -1.000568
2010-07-29 03:18:12 51°13.661 2°55.962 22.8295 0.916711 5.152803 -1.000568
2010-07-29 03:18:17 51°13.661 2°55.962 22.8293 0.916711 5.152803 -0.965744
2010-07-29 03:18:22 51°13.661 2°55.962 22.8287 0.916711 5.152877 -1.000568
2010-07-29 03:18:27 51°13.663 2°55.96 22.828 0.916711 5.152877 -1.000568
2010-07-29 03:18:32 51°13.663 2°55.96 22.828 0.916711 5.152951 -1.000568
2010-07-29 03:18:37 51°13.663 2°55.96 22.828 0.916606 5.152393 -1.000568
2010-07-29 03:18:42 51°13.663 2°55.961 22.8285 0.916711 5.153026 -0.965744
2010-07-29 03:18:47 51°13.664 2°55.961 22.8282 0.916711 5.1531 -1.000568
2010-07-29 03:18:52 51°13.663 2°55.961 22.8285 0.916606 5.152468 -1.035392
2010-07-29 03:18:57 51°13.663 2°55.961 22.8278 0.916606 5.152468 -1.000568
2010-07-29 03:19:02 51°13.664 2°55.961 22.827 0.916606 5.152468 -1.000568
2010-07-29 03:19:07 51°13.664 2°55.961 22.8275 0.916606 5.152468 -1.000568
2010-07-29 03:19:12 51°13.664 2°55.96 22.827 0.916606 5.152542 -1.000568
2010-07-29 03:19:17 51°13.664 2°55.96 22.8272 0.916606 5.152616 -1.000568
2010-07-29 03:19:22 51°13.664 2°55.96 22.8271 0.916606 5.152542 -1.000568
2010-07-29 03:19:27 51°13.664 2°55.961 22.8266 0.916606 5.152542 -1.000568
2010-07-29 03:19:32 51°13.664 2°55.96 22.8266 0.916606 5.152691 -0.965744
2010-07-29 03:19:37 51°13.664 2°55.961 22.8267 0.916606 5.152691 -0.965744
2010-07-29 03:19:42 51°13.664 2°55.961 22.8279 0.916501 5.152133 -1.000568
2010-07-29 03:19:47 51°13.664 2°55.961 22.828 0.916606 5.152839 -1.000568
2010-07-29 03:19:52 51°13.664 2°55.961 22.8279 0.916606 5.152839 -1.000568
2010-07-29 03:19:57 51°13.664 2°55.961 22.8285 0.916606 5.152839 -1.000568
2010-07-29 03:20:02 51°13.664 2°55.961 22.8286 0.916501 5.152207 -0.965744
2010-07-29 03:20:07 51°13.664 2°55.961 22.8282 0.916606 5.152914 -1.000568
2010-07-29 03:20:12 51°13.664 2°55.961 22.8284 0.916606 5.152988 -1.000568
2010-07-29 03:20:17 51°13.664 2°55.961 22.8273 0.916501 5.15243 -1.000568
2010-07-29 03:20:22 51°13.664 2°55.961 22.828 0.916501 5.152504 -1.000568
2010-07-29 03:20:27 51°13.664 2°55.961 22.8281 0.916501 5.152579 -0.965744
2010-07-29 03:20:32 51°13.664 2°55.961 22.8286 0.916501 5.152579 -0.965744
2010-07-29 03:20:37 51°13.664 2°55.961 22.8289 0.916501 5.152653 -1.000568
2010-07-29 03:20:42 51°13.664 2°55.961 22.8281 0.916501 5.152653 -1.000568
2010-07-29 03:20:47 51°13.664 2°55.961 22.8282 0.916501 5.152727 -0.965744
2010-07-29 03:20:52 51°13.664 2°55.961 22.8279 0.916501 5.152802 -0.965744
2010-07-29 03:20:57 51°13.665 2°55.961 22.8271 0.916501 5.152802 -0.965744
2010-07-29 03:21:02 51°13.665 2°55.961 22.8269 0.916501 5.152876 -0.965744
2010-07-29 03:21:07 51°13.665 2°55.961 22.8257 0.916501 5.15295 -1.000568
2010-07-29 03:21:12 51°13.665 2°55.961 22.8258 0.916501 5.153025 -1.000568
2010-07-29 03:21:17 51°13.665 2°55.962 22.8253 0.916501 5.153025 -0.965744
2010-07-29 03:21:22 51°13.665 2°55.962 22.8262 0.916501 5.153099 -0.965744
2010-07-29 03:21:27 51°13.666 2°55.962 22.8253 0.916501 5.153099 -0.965744
2010-07-29 03:21:32 51°13.666 2°55.962 22.8244 0.916501 5.153173 -1.000568
2010-07-29 03:21:37 51°13.666 2°55.962 22.824 0.916397 5.152615 -1.000568
2010-07-29 03:21:42 51°13.666 2°55.962 22.8249 0.916501 5.153248 -1.000568
2010-07-29 03:21:47 51°13.666 2°55.962 22.8251 0.916397 5.15269 -0.965744
2010-07-29 03:21:52 51°13.666 2°55.962 22.8246 0.916397 5.15269 -0.965744
2010-07-29 03:21:57 51°13.665 2°55.962 22.8243 0.916397 5.152838 -1.035392
2010-07-29 03:22:02 51°13.665 2°55.962 22.8251 0.916397 5.152838 -1.035392
2010-07-29 03:22:07 51°13.665 2°55.962 22.8244 0.916397 5.152913 -1.035392
2010-07-29 03:22:12 51°13.665 2°55.962 22.8243 0.916397 5.152913 -1.000568
2010-07-29 03:22:17 51°13.665 2°55.962 22.8232 0.916397 5.152987 -0.965744
2010-07-29 03:22:22 51°13.665 2°55.962 22.8229 0.916397 5.153061 -1.000568
2010-07-29 03:22:27 51°13.665 2°55.962 22.8228 0.916397 5.153061 -1.000568
2010-07-29 03:22:32 51°13.665 2°55.962 22.8235 0.916397 5.153136 -1.000568
2010-07-29 03:22:37 51°13.665 2°55.962 22.8221 0.916397 5.15321 -1.000568
2010-07-29 03:22:42 51°13.665 2°55.962 22.8221 0.916397 5.153136 -0.965744
2010-07-29 03:22:47 51°13.665 2°55.962 22.822 0.916292 5.152652 -0.965744
2010-07-29 03:22:52 51°13.665 2°55.962 22.8218 0.916397 5.153284 -0.965744
2010-07-29 03:22:57 51°13.665 2°55.962 22.8208 0.916397 5.153284 -0.965744
2010-07-29 03:23:02 51°13.665 2°55.962 22.8215 0.916292 5.152652 -1.000568
2010-07-29 03:23:07 51°13.665 2°55.962 22.8208 0.916397 5.153359 -1.000568
2010-07-29 03:23:12 51°13.665 2°55.962 22.8215 0.916292 5.152726 -1.000568
2010-07-29 03:23:17 51°13.665 2°55.962 22.8201 0.916292 5.152801 -1.000568
2010-07-29 03:23:22 51°13.665 2°55.962 22.8193 0.916292 5.152801 -1.000568
2010-07-29 03:23:27 51°13.665 2°55.962 22.8198 0.916292 5.152801 -1.000568
2010-07-29 03:23:32 51°13.665 2°55.962 22.8193 0.916292 5.152875 -1.000568
2010-07-29 03:23:37 51°13.664 2°55.962 22.8202 0.916397 5.153433 -1.000568
2010-07-29 03:23:42 51°13.664 2°55.962 22.8205 0.916292 5.152875 -0.965744
2010-07-29 03:23:47 51°13.665 2°55.962 22.8208 0.916292 5.153024 -1.000568
2010-07-29 03:23:52 51°13.665 2°55.962 22.8207 0.916292 5.152875 -1.000568
2010-07-29 03:23:57 51°13.665 2°55.962 22.8204 0.916292 5.152875 -1.000568
2010-07-29 03:24:02 51°13.664 2°55.962 22.8206 0.916292 5.152949 -1.035392
2010-07-29 03:24:07 51°13.664 2°55.962 22.8195 0.916292 5.152949 -1.000568
2010-07-29 03:24:12 51°13.664 2°55.962 22.8192 0.916292 5.152949 -0.965744
2010-07-29 03:24:17 51°13.664 2°55.962 22.819 0.916292 5.153024 -1.000568
2010-07-29 03:24:22 51°13.664 2°55.962 22.8182 0.916292 5.153024 -1.000568
2010-07-29 03:24:27 51°13.664 2°55.962 22.8187 0.916292 5.153024 -1.000568
2010-07-29 03:24:32 51°13.664 2°55.962 22.8189 0.916292 5.153098 -1.000568
2010-07-29 03:24:37 51°13.664 2°55.962 22.8183 0.916292 5.153098 -1.000568
2010-07-29 03:24:42 51°13.664 2°55.962 22.817 0.916187 5.152465 -0.965744
2010-07-29 03:24:47 51°13.664 2°55.962 22.8184 0.916292 5.153172 -1.000568
2010-07-29 03:24:52 51°13.664 2°55.962 22.8182 0.916187 5.15254 -1.000568
2010-07-29 03:24:57 51°13.664 2°55.962 22.8182 0.916187 5.15254 -1.000568
2010-07-29 03:25:02 51°13.664 2°55.961 22.8181 0.916187 5.15254 -0.965744
2010-07-29 03:25:07 51°13.663 2°55.961 22.8171 0.916187 5.15254 -1.000568
2010-07-29 03:25:12 51°13.663 2°55.961 22.8174 0.916187 5.152614 -1.000568
2010-07-29 03:25:17 51°13.663 2°55.961 22.816 0.916188 5.152763 -1.000568
2010-07-29 03:25:22 51°13.663 2°55.961 22.8163 0.916188 5.152763 -1.000568
2010-07-29 03:25:27 51°13.663 2°55.961 22.8156 0.916188 5.152763 -1.000568
2010-07-29 03:25:32 51°13.663 2°55.961 22.816 0.916188 5.152763 -1.000568
2010-07-29 03:25:37 51°13.663 2°55.961 22.8156 0.916188 5.152837 -0.965744
2010-07-29 03:25:42 51°13.663 2°55.961 22.8154 0.916188 5.152912 -1.000568
2010-07-29 03:25:47 51°13.663 2°55.961 22.8151 0.916188 5.152912 -1.000568
2010-07-29 03:25:52 51°13.663 2°55.961 22.8158 0.916188 5.152986 -0.965744
2010-07-29 03:25:57 51°13.662 2°55.961 22.8156 0.916188 5.152986 -0.965744
2010-07-29 03:26:02 51°13.662 2°55.961 22.8156 0.916188 5.152986 -1.000568
2010-07-29 03:26:07 51°13.662 2°55.961 22.8165 0.916188 5.15306 -1.000568
2010-07-29 03:26:12 51°13.662 2°55.961 22.8162 0.916188 5.153135 -1.000568
2010-07-29 03:26:17 51°13.662 2°55.961 22.8161 0.916083 5.152576 -0.965744
2010-07-29 03:26:22 51°13.662 2°55.961 22.8158 0.916188 5.153209 -0.965744
2010-07-29 03:26:27 51°13.662 2°55.961 22.8161 0.916188 5.153209 -0.965744
2010-07-29 03:26:32 51°13.662 2°55.961 22.816 0.916083 5.152651 -1.000568
2010-07-29 03:26:37 51°13.662 2°55.961 22.8156 0.916083 5.152725 -1.000568
2010-07-29 03:26:42 51°13.662 2°55.961 22.8156 0.916083 5.152725 -1.000568
2010-07-29 03:26:47 51°13.662 2°55.961 22.8162 0.916083 5.152874 -1.000568
2010-07-29 03:26:52 51°13.662 2°55.961 22.8166 0.916083 5.152874 -0.965744
2010-07-29 03:26:57 51°13.662 2°55.961 22.8157 0.916083 5.152948 -1.035392
2010-07-29 03:27:02 51°13.662 2°55.96 22.8162 0.916083 5.152948 -1.035392
2010-07-29 03:27:07 51°13.662 2°55.961 22.8158 0.916083 5.152948 -1.000568
2010-07-29 03:27:12 51°13.662 2°55.961 22.8163 0.916083 5.153023 -0.965744
2010-07-29 03:27:17 51°13.661 2°55.961 22.8163 0.916083 5.153023 -0.965744
2010-07-29 03:27:22 51°13.661 2°55.961 22.817 0.916083 5.153097 -1.000568
2010-07-29 03:27:27 51°13.661 2°55.961 22.8147 0.916083 5.153097 -1.000568
2010-07-29 03:27:32 51°13.661 2°55.961 22.8153 0.916083 5.153097 -1.000568
2010-07-29 03:27:37 51°13.661 2°55.961 22.8149 0.915978 5.152613 -0.965744
2010-07-29 03:27:42 51°13.66 2°55.96 22.8146 0.916083 5.153171 -1.000568
2010-07-29 03:27:47 51°13.66 2°55.961 22.8152 0.916083 5.153246 -1.000568
2010-07-29 03:27:52 51°13.66 2°55.961 22.8151 0.915978 5.152688 -1.000568
2010-07-29 03:27:57 51°13.66 2°55.961 22.8145 0.915978 5.152688 -1.000568
2010-07-29 03:28:02 51°13.66 2°55.961 22.815 0.915978 5.152762 -1.000568
2010-07-29 03:28:07 51°13.66 2°55.961 22.8153 0.915978 5.152688 -0.965744
2010-07-29 03:28:12 51°13.66 2°55.961 22.8152 0.915978 5.152762 -0.965744
2010-07-29 03:28:17 51°13.66 2°55.961 22.8158 0.915978 5.152985 -1.000568